Observation data for Clyde on 07/13/2020      Previous  Date  Next       Current Mesonet Observations  Soil Data  Daily Summary Page  Observations in Plain Language
KCL2 130500Z 15010KT 31/17 A2991 RMK A01 T03120165  RH  041%=      5-min Rain = 0
KCL2 130501Z 15011KT 31/16 A2991 RMK A01 T03110164  RH  041%=      5-min Rain = 0
KCL2 130502Z 15010KT 31/16 A2991 RMK A01 T03110164  RH  041%=      5-min Rain = 0
KCL2 130503Z 15011KT 31/16 A2991 RMK A01 T03120164  RH  041%=      5-min Rain = 0
KCL2 130504Z 15012KT 31/16 A2991 RMK A01 T03110163  RH  041%=      5-min Rain = 0
KCL2 130505Z 15013KT 31/16 A2991 RMK A01 T03120163  RH  041%=      5-min Rain = 0
KCL2 130506Z 15012KT 31/16 A2991 RMK A01 T03130162  RH  040%=      5-min Rain = 0
KCL2 130507Z 15011KT 31/16 A2991 RMK A01 T03140162  RH  040%=      5-min Rain = 0
KCL2 130508Z 15010KT 31/16 A2991 RMK A01 T03140162  RH  040%=      5-min Rain = 0
KCL2 130509Z 15011KT 31/16 A2991 RMK A01 T03140162  RH  040%=      5-min Rain = 0
KCL2 130510Z 15011KT 31/16 A2991 RMK A01 T03140162  RH  040%=      5-min Rain = 0
KCL2 130511Z 15012KT 31/16 A2991 RMK A01 T03140161  RH  040%=      5-min Rain = 0
KCL2 130512Z 15011KT 31/16 A2991 RMK A01 T03140161  RH  040%=      5-min Rain = 0
KCL2 130513Z 15013KT 31/16 A2991 RMK A01 T03140161  RH  040%=      5-min Rain = 0
KCL2 130514Z 15010KT 32/16 A2991 RMK A01 T03150161  RH  040%=      5-min Rain = 0
KCL2 130515Z 15010KT 31/16 A2991 RMK A01 T03140161  RH  040%=      5-min Rain = 0
KCL2 130516Z 14009KT 31/16 A2991 RMK A01 T03140161  RH  040%=      5-min Rain = 0
KCL2 130517Z 15011KT 31/16 A2991 RMK A01 T03140161  RH  040%=      5-min Rain = 0
KCL2 130518Z 15011KT 31/16 A2991 RMK A01 T03130161  RH  040%=      5-min Rain = 0
KCL2 130519Z 15011KT 31/16 A2991 RMK A01 T03130161  RH  040%=      5-min Rain = 0
KCL2 130520Z 15010KT 31/16 A2991 RMK A01 T03130161  RH  040%=      5-min Rain = 0
KCL2 130521Z 15010KT 31/16 A2991 RMK A01 T03130162  RH  040%=      5-min Rain = 0
KCL2 130522Z 15010KT 31/16 A2991 RMK A01 T03120161  RH  040%=      5-min Rain = 0
KCL2 130523Z 14011KT 31/16 A2992 RMK A01 T03120161  RH  040%=      5-min Rain = 0
KCL2 130524Z 15011KT 31/16 A2991 RMK A01 T03120161  RH  040%=      5-min Rain = 0
KCL2 130525Z 15010KT 31/16 A2991 RMK A01 T03110162  RH  041%=      5-min Rain = 0
KCL2 130526Z 15010KT 31/16 A2992 RMK A01 T03110162  RH  041%=      5-min Rain = 0
KCL2 130527Z 15011KT 31/16 A2991 RMK A01 T03100162  RH  041%=      5-min Rain = 0
KCL2 130528Z 15011KT 31/16 A2991 RMK A01 T03100162  RH  041%=      5-min Rain = 0
KCL2 130529Z 15012KT 31/16 A2991 RMK A01 T03090162  RH  041%=      5-min Rain = 0
KCL2 130530Z 15012KT 31/16 A2991 RMK A01 T03090162  RH  041%=      5-min Rain = 0
KCL2 130531Z 15012KT 31/16 A2991 RMK A01 T03090162  RH  041%=      5-min Rain = 0
KCL2 130532Z 15010KT 31/16 A2992 RMK A01 T03090162  RH  041%=      5-min Rain = 0
KCL2 130533Z 15011KT 31/16 A2992 RMK A01 T03090162  RH  041%=      5-min Rain = 0
KCL2 130534Z 15010KT 31/16 A2992 RMK A01 T03090161  RH  041%=      5-min Rain = 0
KCL2 130535Z 15010KT 31/16 A2992 RMK A01 T03090162  RH  041%=      5-min Rain = 0
KCL2 130536Z 15009KT 31/16 A2992 RMK A01 T03090162  RH  041%=      5-min Rain = 0
KCL2 130537Z 15010KT 31/16 A2992 RMK A01 T03090162  RH  041%=      5-min Rain = 0
KCL2 130538Z 15010KT 31/16 A2992 RMK A01 T03080162  RH  041%=      5-min Rain = 0
KCL2 130539Z 15010KT 31/16 A2992 RMK A01 T03070162  RH  041%=      5-min Rain = 0
KCL2 130540Z 16010KT 31/16 A2992 RMK A01 T03070162  RH  041%=      5-min Rain = 0
KCL2 130541Z 16011KT 31/16 A2992 RMK A01 T03070161  RH  042%=      5-min Rain = 0
KCL2 130542Z 15012KT 31/16 A2992 RMK A01 T03070162  RH  042%=      5-min Rain = 0
KCL2 130543Z 15010KT 31/16 A2991 RMK A01 T03070162  RH  042%=      5-min Rain = 0
KCL2 130544Z 15011KT 31/16 A2992 RMK A01 T03060163  RH  042%=      5-min Rain = 0
KCL2 130545Z 15009KT 31/16 A2992 RMK A01 T03060163  RH  042%=      5-min Rain = 0
KCL2 130546Z 15009KT 31/16 A2992 RMK A01 T03050163  RH  043%=      5-min Rain = 0
KCL2 130547Z 15011KT 30/16 A2992 RMK A01 T03030163  RH  043%=      5-min Rain = 0
KCL2 130548Z 15010KT 30/16 A2992 RMK A01 T03030163  RH  043%=      5-min Rain = 0
KCL2 130549Z 15010KT 30/16 A2992 RMK A01 T03030163  RH  043%=      5-min Rain = 0
KCL2 130550Z 14010KT 30/16 A2992 RMK A01 T03030163  RH  043%=      5-min Rain = 0
KCL2 130551Z 15011KT 30/16 A2992 RMK A01 T03030164  RH  043%=      5-min Rain = 0
KCL2 130552Z 14010KT 30/16 A2992 RMK A01 T03020163  RH  043%=      5-min Rain = 0
KCL2 130553Z 15010G15KT 30/16 A2992 RMK A01 T03020163  RH  043%=      5-min Rain = 0
KCL2 130554Z 15010KT 30/16 A2992 RMK A01 T03010163  RH  043%=      5-min Rain = 0
KCL2 130555Z 15010KT 30/16 A2992 RMK A01 T03010163  RH  043%=      5-min Rain = 0
KCL2 130556Z 14010KT 30/16 A2992 RMK A01 T03010163  RH  043%=      5-min Rain = 0
KCL2 130557Z 14011KT 30/16 A2992 RMK A01 T03000163  RH  043%=      5-min Rain = 0
KCL2 130558Z 15010KT 30/16 A2991 RMK A01 T03010162  RH  043%=      5-min Rain = 0
KCL2 130559Z 14011KT 30/16 A2991 RMK A01 T03010163  RH  043%=      5-min Rain = 0
KCL2 130600Z 15011KT 30/16 A2991 RMK A01 T03000162  RH  043%=      5-min Rain = 0
KCL2 130601Z 14009KT 30/16 A2991 RMK A01 T03010163  RH  043%=      5-min Rain = 0
KCL2 130602Z 14010KT 30/16 A2991 RMK A01 T03000163  RH  044%=      5-min Rain = 0
KCL2 130603Z 14009KT 30/16 A2991 RMK A01 T02990163  RH  044%=      5-min Rain = 0
KCL2 130604Z 15010KT 30/16 A2991 RMK A01 T02990162  RH  044%=      5-min Rain = 0
KCL2 130605Z 15010KT 30/16 A2991 RMK A01 T02990162  RH  044%=      5-min Rain = 0
KCL2 130606Z 15010KT 30/16 A2991 RMK A01 T02990162  RH  044%=      5-min Rain = 0
KCL2 130607Z 15009KT 30/16 A2991 RMK A01 T02980162  RH  044%=      5-min Rain = 0
KCL2 130608Z 15010KT 30/16 A2991 RMK A01 T02980162  RH  044%=      5-min Rain = 0
KCL2 130609Z 15009KT 30/16 A2991 RMK A01 T02980162  RH  044%=      5-min Rain = 0
KCL2 130610Z 15010KT 30/16 A2991 RMK A01 T02970162  RH  044%=      5-min Rain = 0
KCL2 130611Z 15013KT 30/16 A2991 RMK A01 T02970161  RH  044%=      5-min Rain = 0
KCL2 130612Z 15009KT 30/16 A2991 RMK A01 T02980161  RH  043%=      5-min Rain = 0
KCL2 130613Z 15009KT 30/16 A2991 RMK A01 T02980161  RH  044%=      5-min Rain = 0
KCL2 130614Z 15011KT 30/16 A2991 RMK A01 T02970161  RH  044%=      5-min Rain = 0
KCL2 130615Z 16010KT 30/16 A2991 RMK A01 T02970161  RH  044%=      5-min Rain = 0
KCL2 130616Z 15010KT 30/16 A2991 RMK A01 T02970161  RH  044%=      5-min Rain = 0
KCL2 130617Z 15010KT 30/16 A2991 RMK A01 T02980161  RH  044%=      5-min Rain = 0
KCL2 130618Z 15010KT 30/16 A2991 RMK A01 T02970161  RH  044%=      5-min Rain = 0
KCL2 130619Z 15009KT 30/16 A2991 RMK A01 T02970161  RH  044%=      5-min Rain = 0
KCL2 130620Z 15010KT 30/16 A2991 RMK A01 T02970161  RH  044%=      5-min Rain = 0
KCL2 130621Z 15010KT 30/16 A2991 RMK A01 T02970161  RH  044%=      5-min Rain = 0
KCL2 130622Z 15010KT 30/16 A2991 RMK A01 T02960161  RH  044%=      5-min Rain = 0
KCL2 130623Z 15010KT 30/16 A2991 RMK A01 T02960161  RH  044%=      5-min Rain = 0
KCL2 130624Z 15010KT 30/16 A2991 RMK A01 T02950161  RH  044%=      5-min Rain = 0
KCL2 130625Z 15010KT 30/16 A2991 RMK A01 T02950162  RH  044%=      5-min Rain = 0
KCL2 130626Z 15010G15KT 30/16 A2991 RMK A01 T02950162  RH  045%=      5-min Rain = 0
KCL2 130627Z 15011KT 29/16 A2991 RMK A01 T02940161  RH  045%=      5-min Rain = 0
KCL2 130628Z 15010KT 29/16 A2991 RMK A01 T02940161  RH  045%=      5-min Rain = 0
KCL2 130629Z 15010KT 29/16 A299 RMK A01 T02940161  RH  045%=      5-min Rain = 0
KCL2 130630Z 15010KT 29/16 A2991 RMK A01 T02930161  RH  045%=      5-min Rain = 0
KCL2 130631Z 15010KT 29/16 A2991 RMK A01 T02930161  RH  045%=      5-min Rain = 0
KCL2 130632Z 15010KT 29/16 A2991 RMK A01 T02920160  RH  045%=      5-min Rain = 0
KCL2 130633Z 15012KT 29/16 A2991 RMK A01 T02920159  RH  045%=      5-min Rain = 0
KCL2 130634Z 15010KT 29/16 A2991 RMK A01 T02930160  RH  044%=      5-min Rain = 0
KCL2 130635Z 15009KT 29/16 A2991 RMK A01 T02940160  RH  044%=      5-min Rain = 0
KCL2 130636Z 15009KT 29/16 A2991 RMK A01 T02930160  RH  045%=      5-min Rain = 0
KCL2 130637Z 15009KT 29/16 A2991 RMK A01 T02920160  RH  045%=      5-min Rain = 0
KCL2 130638Z 15009KT 29/16 A2991 RMK A01 T02910160  RH  045%=      5-min Rain = 0
KCL2 130639Z 15009KT 29/16 A2991 RMK A01 T02910160  RH  045%=      5-min Rain = 0
KCL2 130640Z 16009KT 29/16 A2991 RMK A01 T02900160  RH  045%=      5-min Rain = 0
KCL2 130641Z 16010KT 29/16 A2991 RMK A01 T02890160  RH  046%=      5-min Rain = 0
KCL2 130642Z 16010KT 29/16 A2991 RMK A01 T02890161  RH  046%=      5-min Rain = 0
KCL2 130643Z 16009KT 29/16 A2991 RMK A01 T02890160  RH  046%=      5-min Rain = 0
KCL2 130644Z 16009KT 29/16 A2991 RMK A01 T02880161  RH  046%=      5-min Rain = 0
KCL2 130645Z 16008KT 29/16 A2991 RMK A01 T02870160  RH  046%=      5-min Rain = 0
KCL2 130646Z 16009KT 29/16 A2991 RMK A01 T02870161  RH  046%=      5-min Rain = 0
KCL2 130647Z 16011KT 29/16 A2991 RMK A01 T02860160  RH  047%=      5-min Rain = 0
KCL2 130648Z 16010KT 29/16 A2991 RMK A01 T02860160  RH  046%=      5-min Rain = 0
KCL2 130649Z 16009KT 29/16 A2991 RMK A01 T02860160  RH  046%=      5-min Rain = 0
KCL2 130650Z 16011KT 29/16 A2991 RMK A01 T02850161  RH  047%=      5-min Rain = 0
KCL2 130651Z 16010KT 29/16 A2991 RMK A01 T02850160  RH  047%=      5-min Rain = 0
KCL2 130652Z 16010KT 29/16 A2991 RMK A01 T02850161  RH  047%=      5-min Rain = 0
KCL2 130653Z 15009KT 29/16 A2991 RMK A01 T02850161  RH  047%=      5-min Rain = 0
KCL2 130654Z 16009KT 28/16 A2991 RMK A01 T02840161  RH  047%=      5-min Rain = 0
KCL2 130655Z 15009KT 28/16 A2991 RMK A01 T02830162  RH  048%=      5-min Rain = 0
KCL2 130656Z 16009KT 28/16 A2991 RMK A01 T02820162  RH  048%=      5-min Rain = 0
KCL2 130657Z 16009KT 28/16 A2991 RMK A01 T02810162  RH  048%=      5-min Rain = 0
KCL2 130658Z 16007KT 28/16 A2991 RMK A01 T02810162  RH  048%=      5-min Rain = 0
KCL2 130659Z 16009KT 28/16 A2991 RMK A01 T02800162  RH  049%=      5-min Rain = 0
KCL2 130700Z 16008KT 28/16 A2991 RMK A01 T02800162  RH  049%=      5-min Rain = 0
KCL2 130701Z 16009KT 28/16 A2991 RMK A01 T02790162  RH  049%=      5-min Rain = 0
KCL2 130702Z 16008KT 28/16 A2991 RMK A01 T02790163  RH  049%=      5-min Rain = 0
KCL2 130703Z 17009KT 28/16 A2991 RMK A01 T02780162  RH  049%=      5-min Rain = 0
KCL2 130704Z 17009KT 28/16 A2991 RMK A01 T02770162  RH  049%=      5-min Rain = 0
KCL2 130705Z 17010KT 28/16 A2991 RMK A01 T02770162  RH  049%=      5-min Rain = 0
KCL2 130706Z 17008KT 28/16 A2991 RMK A01 T02770161  RH  049%=      5-min Rain = 0
KCL2 130707Z 17007KT 28/16 A2991 RMK A01 T02770162  RH  050%=      5-min Rain = 0
KCL2 130708Z 17009KT 28/16 A2991 RMK A01 T02760161  RH  050%=      5-min Rain = 0
KCL2 130709Z 17009KT 28/16 A2991 RMK A01 T02760161  RH  050%=      5-min Rain = 0
KCL2 130710Z 17008KT 28/16 A2991 RMK A01 T02750162  RH  050%=      5-min Rain = 0
KCL2 130711Z 17009KT 27/16 A2991 RMK A01 T02730161  RH  050%=      5-min Rain = 0
KCL2 130712Z 17008KT 27/16 A2991 RMK A01 T02720161  RH  051%=      5-min Rain = 0
KCL2 130713Z 17009KT 27/16 A2991 RMK A01 T02720161  RH  051%=      5-min Rain = 0
KCL2 130714Z 17008KT 27/16 A2991 RMK A01 T02710161  RH  051%=      5-min Rain = 0
KCL2 130715Z 17009KT 27/16 A2991 RMK A01 T02710162  RH  051%=      5-min Rain = 0
KCL2 130716Z 17010KT 27/16 A2991 RMK A01 T02710161  RH  051%=      5-min Rain = 0
KCL2 130717Z 17010KT 27/16 A2991 RMK A01 T02700161  RH  051%=      5-min Rain = 0
KCL2 130718Z 16008KT 27/16 A2991 RMK A01 T02710161  RH  051%=      5-min Rain = 0
KCL2 130719Z 17009KT 27/16 A2991 RMK A01 T02700161  RH  051%=      5-min Rain = 0
KCL2 130720Z 17009KT 27/16 A2991 RMK A01 T02700162  RH  051%=      5-min Rain = 0
KCL2 130721Z 17009KT 27/16 A2991 RMK A01 T02700161  RH  051%=      5-min Rain = 0
KCL2 130722Z 16009KT 27/16 A2991 RMK A01 T02700161  RH  051%=      5-min Rain = 0
KCL2 130723Z 16008KT 27/16 A2991 RMK A01 T02690161  RH  052%=      5-min Rain = 0
KCL2 130724Z 17008KT 27/16 A2991 RMK A01 T02690161  RH  052%=      5-min Rain = 0
KCL2 130725Z 17008KT 27/16 A2991 RMK A01 T02680161  RH  052%=      5-min Rain = 0
KCL2 130726Z 17008KT 27/16 A2992 RMK A01 T02680161  RH  052%=      5-min Rain = 0
KCL2 130727Z 17008KT 27/16 A2992 RMK A01 T02670161  RH  052%=      5-min Rain = 0
KCL2 130728Z 17007KT 27/16 A2992 RMK A01 T02680161  RH  052%=      5-min Rain = 0
KCL2 130729Z 17008KT 27/16 A2992 RMK A01 T02660161  RH  052%=      5-min Rain = 0
KCL2 130730Z 17008KT 27/16 A2992 RMK A01 T02660161  RH  053%=      5-min Rain = 0
KCL2 130731Z 17008KT 27/16 A2992 RMK A01 T02650160  RH  053%=      5-min Rain = 0
KCL2 130732Z 17008KT 27/16 A2992 RMK A01 T02650160  RH  053%=      5-min Rain = 0
KCL2 130733Z 17008KT 27/16 A2992 RMK A01 T02660160  RH  052%=      5-min Rain = 0
KCL2 130734Z 17008KT 27/16 A2992 RMK A01 T02660160  RH  052%=      5-min Rain = 0
KCL2 130735Z 17008KT 27/16 A2992 RMK A01 T02660160  RH  052%=      5-min Rain = 0
KCL2 130736Z 17008KT 27/16 A2992 RMK A01 T02650161  RH  053%=      5-min Rain = 0
KCL2 130737Z 17008KT 27/16 A2992 RMK A01 T02650160  RH  053%=      5-min Rain = 0
KCL2 130738Z 17008KT 27/16 A2992 RMK A01 T02650160  RH  052%=      5-min Rain = 0
KCL2 130739Z 17007KT 27/16 A2992 RMK A01 T02660160  RH  052%=      5-min Rain = 0
KCL2 130740Z 17007KT 27/16 A2992 RMK A01 T02650161  RH  053%=      5-min Rain = 0
KCL2 130741Z 17008KT 26/16 A2992 RMK A01 T02640161  RH  053%=      5-min Rain = 0
KCL2 130742Z 17007KT 26/16 A2992 RMK A01 T02630161  RH  053%=      5-min Rain = 0
KCL2 130743Z 17007KT 26/16 A2992 RMK A01 T02620161  RH  054%=      5-min Rain = 0
KCL2 130744Z 17008KT 26/16 A2991 RMK A01 T02620161  RH  054%=      5-min Rain = 0
KCL2 130745Z 17008KT 26/16 A2992 RMK A01 T02610160  RH  054%=      5-min Rain = 0
KCL2 130746Z 17008KT 26/16 A2992 RMK A01 T02610160  RH  054%=      5-min Rain = 0
KCL2 130747Z 17007KT 26/16 A2992 RMK A01 T02600161  RH  054%=      5-min Rain = 0
KCL2 130748Z 17007KT 26/16 A2992 RMK A01 T02600161  RH  054%=      5-min Rain = 0
KCL2 130749Z 17007KT 26/16 A2992 RMK A01 T02600161  RH  054%=      5-min Rain = 0
KCL2 130750Z 17007KT 26/16 A2992 RMK A01 T02590161  RH  055%=      5-min Rain = 0
KCL2 130751Z 17007KT 26/16 A2992 RMK A01 T02580161  RH  055%=      5-min Rain = 0
KCL2 130752Z 17007KT 26/16 A2992 RMK A01 T02580160  RH  055%=      5-min Rain = 0
KCL2 130753Z 17007KT 26/16 A2992 RMK A01 T02580160  RH  055%=      5-min Rain = 0
KCL2 130754Z 17007KT 26/16 A2992 RMK A01 T02580160  RH  055%=      5-min Rain = 0
KCL2 130755Z 17006KT 26/16 A2992 RMK A01 T02580161  RH  055%=      5-min Rain = 0
KCL2 130756Z 18006KT 26/16 A2992 RMK A01 T02580161  RH  055%=      5-min Rain = 0
KCL2 130757Z 17006KT 26/16 A2992 RMK A01 T02570161  RH  055%=      5-min Rain = 0
KCL2 130758Z 17006KT 26/16 A2992 RMK A01 T02560161  RH  056%=      5-min Rain = 0
KCL2 130759Z 17007KT 26/16 A2992 RMK A01 T02560161  RH  056%=      5-min Rain = 0
KCL2 130800Z 17006KT 26/16 A2992 RMK A01 T02560161  RH  056%=      5-min Rain = 0
KCL2 130801Z 17007KT 26/16 A2992 RMK A01 T02560161  RH  056%=      5-min Rain = 0
KCL2 130802Z 17006KT 26/16 A2992 RMK A01 T02550160  RH  056%=      5-min Rain = 0
KCL2 130803Z 17006KT 26/16 A2992 RMK A01 T02550161  RH  056%=      5-min Rain = 0
KCL2 130804Z 17007KT 26/16 A2992 RMK A01 T02550161  RH  056%=      5-min Rain = 0
KCL2 130805Z 17007KT 26/16 A2992 RMK A01 T02550161  RH  056%=      5-min Rain = 0
KCL2 130806Z 17007KT 25/16 A2992 RMK A01 T02540161  RH  056%=      5-min Rain = 0
KCL2 130807Z 17007KT 25/16 A2992 RMK A01 T02540161  RH  056%=      5-min Rain = 0
KCL2 130808Z 17007KT 25/16 A2992 RMK A01 T02530161  RH  057%=      5-min Rain = 0
KCL2 130809Z 17007KT 25/16 A2992 RMK A01 T02530160  RH  057%=      5-min Rain = 0
KCL2 130810Z 17007KT 25/16 A2992 RMK A01 T02520160  RH  057%=      5-min Rain = 0
KCL2 130811Z 17008KT 25/16 A2992 RMK A01 T02520160  RH  057%=      5-min Rain = 0
KCL2 130812Z 17007KT 25/16 A2992 RMK A01 T02520160  RH  057%=      5-min Rain = 0
KCL2 130813Z 17007KT 25/16 A2992 RMK A01 T02520160  RH  057%=      5-min Rain = 0
KCL2 130814Z 17007KT 25/16 A2992 RMK A01 T02520160  RH  057%=      5-min Rain = 0
KCL2 130815Z 17007KT 25/16 A2992 RMK A01 T02520160  RH  057%=      5-min Rain = 0
KCL2 130816Z 17007KT 25/16 A2992 RMK A01 T02520160  RH  057%=      5-min Rain = 0
KCL2 130817Z 17007KT 25/16 A2992 RMK A01 T02520160  RH  057%=      5-min Rain = 0
KCL2 130818Z 17007KT 25/16 A2992 RMK A01 T02520161  RH  057%=      5-min Rain = 0
KCL2 130819Z 17007KT 25/16 A2992 RMK A01 T02510160  RH  057%=      5-min Rain = 0
KCL2 130820Z 17008KT 25/16 A2992 RMK A01 T02510160  RH  057%=      5-min Rain = 0
KCL2 130821Z 16008KT 25/16 A2992 RMK A01 T02510161  RH  057%=      5-min Rain = 0
KCL2 130822Z 16007KT 25/16 A2992 RMK A01 T02500160  RH  057%=      5-min Rain = 0
KCL2 130823Z 16007KT 25/16 A2992 RMK A01 T02500160  RH  057%=      5-min Rain = 0
KCL2 130824Z 16007KT 25/16 A2992 RMK A01 T02500160  RH  057%=      5-min Rain = 0
KCL2 130825Z 17007KT 25/16 A2992 RMK A01 T02500160  RH  057%=      5-min Rain = 0
KCL2 130826Z 16007KT 25/16 A2992 RMK A01 T02500160  RH  057%=      5-min Rain = 0
KCL2 130827Z 17007KT 25/16 A2992 RMK A01 T02500160  RH  057%=      5-min Rain = 0
KCL2 130828Z 16007KT 25/16 A2992 RMK A01 T02490160  RH  058%=      5-min Rain = 0
KCL2 130829Z 16007KT 25/16 A2992 RMK A01 T02490160  RH  058%=      5-min Rain = 0
KCL2 130830Z 16007KT 25/16 A2992 RMK A01 T02480160  RH  058%=      5-min Rain = 0
KCL2 130831Z 16007KT 25/16 A2992 RMK A01 T02490160  RH  058%=      5-min Rain = 0
KCL2 130832Z 16007KT 25/16 A2992 RMK A01 T02480159  RH  058%=      5-min Rain = 0
KCL2 130833Z 16007KT 25/16 A2992 RMK A01 T02490160  RH  058%=      5-min Rain = 0
KCL2 130834Z 16008KT 25/16 A2992 RMK A01 T02480160  RH  058%=      5-min Rain = 0
KCL2 130835Z 16007KT 25/16 A2992 RMK A01 T02480160  RH  058%=      5-min Rain = 0
KCL2 130836Z 16007KT 25/16 A2992 RMK A01 T02480159  RH  058%=      5-min Rain = 0
KCL2 130837Z 16007KT 25/16 A2992 RMK A01 T02480160  RH  058%=      5-min Rain = 0
KCL2 130838Z 16008KT 25/16 A2992 RMK A01 T02470160  RH  058%=      5-min Rain = 0
KCL2 130839Z 16008KT 25/16 A2992 RMK A01 T02470160  RH  058%=      5-min Rain = 0
KCL2 130840Z 17008KT 25/16 A2992 RMK A01 T02470160  RH  058%=      5-min Rain = 0
KCL2 130841Z 16007KT 25/16 A2992 RMK A01 T02460159  RH  058%=      5-min Rain = 0
KCL2 130842Z 17007KT 25/16 A2992 RMK A01 T02470160  RH  059%=      5-min Rain = 0
KCL2 130843Z 17007KT 25/16 A2991 RMK A01 T02460160  RH  059%=      5-min Rain = 0
KCL2 130844Z 17008KT 25/16 A2991 RMK A01 T02460160  RH  059%=      5-min Rain = 0
KCL2 130845Z 17008KT 25/16 A2991 RMK A01 T02460159  RH  058%=      5-min Rain = 0
KCL2 130846Z 17008KT 25/16 A2991 RMK A01 T02460159  RH  058%=      5-min Rain = 0
KCL2 130847Z 17007KT 25/16 A2991 RMK A01 T02460159  RH  058%=      5-min Rain = 0
KCL2 130848Z 17008KT 25/16 A2991 RMK A01 T02460158  RH  058%=      5-min Rain = 0
KCL2 130849Z 17007KT 25/16 A2991 RMK A01 T02460158  RH  058%=      5-min Rain = 0
KCL2 130850Z 17007KT 25/16 A2991 RMK A01 T02460158  RH  058%=      5-min Rain = 0
KCL2 130851Z 17007KT 25/16 A2991 RMK A01 T02460159  RH  058%=      5-min Rain = 0
KCL2 130852Z 17007KT 25/16 A2991 RMK A01 T02460159  RH  058%=      5-min Rain = 0
KCL2 130853Z 17008KT 25/16 A2991 RMK A01 T02450159  RH  058%=      5-min Rain = 0
KCL2 130854Z 17007KT 25/16 A2991 RMK A01 T02460159  RH  058%=      5-min Rain = 0
KCL2 130855Z 17007KT 25/16 A2991 RMK A01 T02460158  RH  058%=      5-min Rain = 0
KCL2 130856Z 17007KT 25/16 A2991 RMK A01 T02460158  RH  058%=      5-min Rain = 0
KCL2 130857Z 17007KT 25/16 A2991 RMK A01 T02460158  RH  058%=      5-min Rain = 0
KCL2 130858Z 17006KT 25/16 A2991 RMK A01 T02460159  RH  058%=      5-min Rain = 0
KCL2 130859Z 17006KT 25/16 A2991 RMK A01 T02450158  RH  058%=      5-min Rain = 0
KCL2 130900Z 17007KT 25/16 A2991 RMK A01 T02450159  RH  058%=      5-min Rain = 0
KCL2 130901Z 17006KT 25/16 A2991 RMK A01 T02450159  RH  059%=      5-min Rain = 0
KCL2 130902Z 17006KT 25/16 A2991 RMK A01 T02450159  RH  059%=      5-min Rain = 0
KCL2 130903Z 17007KT 24/16 A2991 RMK A01 T02440159  RH  059%=      5-min Rain = 0
KCL2 130904Z 16005KT 24/16 A2991 RMK A01 T02440159  RH  059%=      5-min Rain = 0
KCL2 130905Z 17005KT 24/16 A2991 RMK A01 T02440158  RH  059%=      5-min Rain = 0
KCL2 130906Z 16005KT 25/16 A2991 RMK A01 T02450158  RH  059%=      5-min Rain = 0
KCL2 130907Z 17005KT 24/16 A2991 RMK A01 T02440158  RH  059%=      5-min Rain = 0
KCL2 130908Z 17006KT 24/16 A2991 RMK A01 T02440159  RH  059%=      5-min Rain = 0
KCL2 130909Z 17006KT 24/16 A2991 RMK A01 T02440159  RH  059%=      5-min Rain = 0
KCL2 130910Z 17006KT 24/16 A2991 RMK A01 T02430159  RH  059%=      5-min Rain = 0
KCL2 130911Z 17006KT 24/16 A2991 RMK A01 T02430159  RH  059%=      5-min Rain = 0
KCL2 130912Z 17006KT 24/16 A2991 RMK A01 T02420159  RH  060%=      5-min Rain = 0
KCL2 130913Z 17006KT 24/16 A2991 RMK A01 T02420159  RH  060%=      5-min Rain = 0
KCL2 130914Z 17006KT 24/16 A2991 RMK A01 T02410158  RH  060%=      5-min Rain = 0
KCL2 130915Z 16006KT 24/16 A2991 RMK A01 T02410159  RH  060%=      5-min Rain = 0
KCL2 130916Z 17005KT 24/16 A2991 RMK A01 T02410159  RH  060%=      5-min Rain = 0
KCL2 130917Z 17006KT 24/16 A2991 RMK A01 T02400159  RH  060%=      5-min Rain = 0
KCL2 130918Z 17005KT 24/16 A2991 RMK A01 T02400159  RH  060%=      5-min Rain = 0
KCL2 130919Z 17005KT 24/16 A2992 RMK A01 T02390158  RH  060%=      5-min Rain = 0
KCL2 130920Z 17006KT 24/16 A2992 RMK A01 T02390158  RH  061%=      5-min Rain = 0
KCL2 130921Z 17005KT 24/16 A2992 RMK A01 T02390158  RH  061%=      5-min Rain = 0
KCL2 130922Z 17005KT 24/16 A2992 RMK A01 T02380158  RH  061%=      5-min Rain = 0
KCL2 130923Z 17006KT 24/16 A2992 RMK A01 T02380158  RH  061%=      5-min Rain = 0
KCL2 130924Z 18005KT 24/16 A2992 RMK A01 T02370158  RH  061%=      5-min Rain = 0
KCL2 130925Z 18005KT 24/16 A2992 RMK A01 T02360159  RH  062%=      5-min Rain = 0
KCL2 130926Z 17006KT 24/16 A2992 RMK A01 T02350158  RH  062%=      5-min Rain = 0
KCL2 130927Z 17005KT 23/16 A2992 RMK A01 T02340158  RH  062%=      5-min Rain = 0
KCL2 130928Z 18006KT 23/16 A2992 RMK A01 T02340158  RH  062%=      5-min Rain = 0
KCL2 130929Z 17006KT 23/16 A2992 RMK A01 T02330158  RH  063%=      5-min Rain = 0
KCL2 130930Z 18006KT 23/16 A2992 RMK A01 T02330158  RH  063%=      5-min Rain = 0
KCL2 130931Z 17006KT 23/16 A2992 RMK A01 T02330158  RH  063%=      5-min Rain = 0
KCL2 130932Z 18006KT 23/16 A2992 RMK A01 T02320158  RH  063%=      5-min Rain = 0
KCL2 130933Z 17006KT 23/16 A2992 RMK A01 T02320158  RH  063%=      5-min Rain = 0
KCL2 130934Z 18007KT 23/16 A2992 RMK A01 T02320158  RH  063%=      5-min Rain = 0
KCL2 130935Z 18006KT 23/16 A2992 RMK A01 T02320158  RH  063%=      5-min Rain = 0
KCL2 130936Z 18006KT 23/16 A2992 RMK A01 T02320158  RH  063%=      5-min Rain = 0
KCL2 130937Z 18007KT 23/16 A2992 RMK A01 T02310157  RH  063%=      5-min Rain = 0
KCL2 130938Z 18007KT 23/16 A2991 RMK A01 T02310157  RH  063%=      5-min Rain = 0
KCL2 130939Z 18007KT 23/16 A2991 RMK A01 T02310157  RH  063%=      5-min Rain = 0
KCL2 130940Z 17007KT 23/16 A2991 RMK A01 T02320157  RH  063%=      5-min Rain = 0
KCL2 130941Z 17007KT 23/16 A2992 RMK A01 T02320158  RH  063%=      5-min Rain = 0
KCL2 130942Z 17007KT 23/16 A2992 RMK A01 T02310157  RH  063%=      5-min Rain = 0
KCL2 130943Z 17007KT 23/16 A2992 RMK A01 T02310157  RH  063%=      5-min Rain = 0
KCL2 130944Z 17007KT 23/16 A2992 RMK A01 T02320158  RH  063%=      5-min Rain = 0
KCL2 130945Z 17007KT 23/16 A2992 RMK A01 T02320157  RH  063%=      5-min Rain = 0
KCL2 130946Z 17007KT 23/16 A2992 RMK A01 T02320157  RH  063%=      5-min Rain = 0
KCL2 130947Z 17007KT 23/16 A2992 RMK A01 T02320157  RH  063%=      5-min Rain = 0
KCL2 130948Z 17007KT 23/16 A2992 RMK A01 T02310157  RH  063%=      5-min Rain = 0
KCL2 130949Z 17007KT 23/16 A2992 RMK A01 T02320158  RH  063%=      5-min Rain = 0
KCL2 130950Z 17007KT 23/16 A2992 RMK A01 T02310157  RH  063%=      5-min Rain = 0
KCL2 130951Z 17007KT 23/16 A2992 RMK A01 T02310156  RH  063%=      5-min Rain = 0
KCL2 130952Z 17007KT 23/16 A2992 RMK A01 T02320157  RH  063%=      5-min Rain = 0
KCL2 130953Z 17007KT 23/16 A2992 RMK A01 T02310157  RH  063%=      5-min Rain = 0
KCL2 130954Z 17007KT 23/16 A2992 RMK A01 T02310157  RH  063%=      5-min Rain = 0
KCL2 130955Z 17007KT 23/16 A2992 RMK A01 T02310156  RH  063%=      5-min Rain = 0
KCL2 130956Z 18006KT 23/16 A2992 RMK A01 T02310157  RH  063%=      5-min Rain = 0
KCL2 130957Z 18006KT 23/16 A2992 RMK A01 T02310157  RH  063%=      5-min Rain = 0
KCL2 130958Z 18007KT 23/16 A2992 RMK A01 T02300156  RH  063%=      5-min Rain = 0
KCL2 130959Z 18007KT 23/16 A2992 RMK A01 T02300157  RH  063%=      5-min Rain = 0
KCL2 131000Z 18007KT 23/16 A2992 RMK A01 T02290156  RH  063%=      5-min Rain = 0
KCL2 131001Z 18007KT 23/16 A2992 RMK A01 T02290157  RH  063%=      5-min Rain = 0
KCL2 131002Z 18007KT 23/16 A2992 RMK A01 T02290156  RH  063%=      5-min Rain = 0
KCL2 131003Z 18007KT 23/16 A2992 RMK A01 T02290156  RH  063%=      5-min Rain = 0
KCL2 131004Z 18008KT 23/16 A2992 RMK A01 T02290156  RH  063%=      5-min Rain = 0
KCL2 131005Z 18007KT 23/16 A2992 RMK A01 T02290155  RH  063%=      5-min Rain = 0
KCL2 131006Z 18008KT 23/16 A2992 RMK A01 T02300155  RH  063%=      5-min Rain = 0
KCL2 131007Z 18008KT 23/16 A2992 RMK A01 T02300155  RH  063%=      5-min Rain = 0
KCL2 131008Z 18008KT 23/16 A2992 RMK A01 T02300155  RH  063%=      5-min Rain = 0
KCL2 131009Z 18009KT 23/15 A2992 RMK A01 T02300154  RH  062%=      5-min Rain = 0
KCL2 131010Z 18008KT 23/15 A2992 RMK A01 T02310154  RH  062%=      5-min Rain = 0
KCL2 131011Z 18009KT 23/15 A2992 RMK A01 T02320154  RH  061%=      5-min Rain = 0
KCL2 131012Z 18009KT 23/15 A2992 RMK A01 T02340153  RH  061%=      5-min Rain = 0
KCL2 131013Z 18008KT 24/15 A2992 RMK A01 T02350153  RH  060%=      5-min Rain = 0
KCL2 131014Z 18009KT 24/15 A2992 RMK A01 T02360152  RH  059%=      5-min Rain = 0
KCL2 131015Z 18008KT 24/15 A2992 RMK A01 T02370152  RH  059%=      5-min Rain = 0
KCL2 131016Z 18009KT 24/15 A2992 RMK A01 T02380152  RH  059%=      5-min Rain = 0
KCL2 131017Z 18009KT 24/15 A2992 RMK A01 T02380152  RH  058%=      5-min Rain = 0
KCL2 131018Z 18009KT 24/15 A2992 RMK A01 T02390151  RH  058%=      5-min Rain = 0
KCL2 131019Z 18009KT 24/15 A2991 RMK A01 T02390151  RH  058%=      5-min Rain = 0
KCL2 131020Z 18009KT 24/15 A2991 RMK A01 T02390151  RH  058%=      5-min Rain = 0
KCL2 131021Z 18008KT 24/15 A2991 RMK A01 T02400151  RH  057%=      5-min Rain = 0
KCL2 131022Z 18008KT 24/15 A2991 RMK A01 T02400151  RH  057%=      5-min Rain = 0
KCL2 131023Z 18008KT 24/15 A2991 RMK A01 T02400150  RH  057%=      5-min Rain = 0
KCL2 131024Z 18009KT 24/15 A2992 RMK A01 T02400151  RH  057%=      5-min Rain = 0
KCL2 131025Z 18008KT 24/15 A2992 RMK A01 T02400150  RH  057%=      5-min Rain = 0
KCL2 131026Z 18008KT 24/15 A2992 RMK A01 T02400150  RH  057%=      5-min Rain = 0
KCL2 131027Z 18008KT 24/15 A2992 RMK A01 T02400150  RH  057%=      5-min Rain = 0
KCL2 131028Z 19008KT 24/15 A2992 RMK A01 T02400150  RH  057%=      5-min Rain = 0
KCL2 131029Z 18007KT 24/15 A2992 RMK A01 T02400149  RH  057%=      5-min Rain = 0
KCL2 131030Z 18008KT 24/15 A2992 RMK A01 T02400149  RH  057%=      5-min Rain = 0
KCL2 131031Z 18008KT 24/15 A2992 RMK A01 T02410149  RH  056%=      5-min Rain = 0
KCL2 131032Z 18008KT 24/15 A2992 RMK A01 T02410149  RH  056%=      5-min Rain = 0
KCL2 131033Z 18007KT 24/15 A2992 RMK A01 T02420149  RH  056%=      5-min Rain = 0
KCL2 131034Z 18007KT 24/15 A2992 RMK A01 T02410149  RH  056%=      5-min Rain = 0
KCL2 131035Z 18008KT 24/15 A2992 RMK A01 T02410149  RH  056%=      5-min Rain = 0
KCL2 131036Z 18007KT 24/15 A2992 RMK A01 T02410149  RH  056%=      5-min Rain = 0
KCL2 131037Z 18008KT 24/15 A2992 RMK A01 T02410149  RH  056%=      5-min Rain = 0
KCL2 131038Z 18008KT 24/15 A2992 RMK A01 T02410149  RH  056%=      5-min Rain = 0
KCL2 131039Z 18008KT 24/15 A2992 RMK A01 T02400149  RH  057%=      5-min Rain = 0
KCL2 131040Z 18008KT 24/15 A2992 RMK A01 T02400149  RH  057%=      5-min Rain = 0
KCL2 131041Z 18008KT 24/15 A2992 RMK A01 T02400149  RH  057%=      5-min Rain = 0
KCL2 131042Z 18008KT 24/15 A2992 RMK A01 T02390148  RH  057%=      5-min Rain = 0
KCL2 131043Z 18007KT 24/15 A2992 RMK A01 T02390148  RH  057%=      5-min Rain = 0
KCL2 131044Z 18008KT 24/15 A2992 RMK A01 T02390148  RH  057%=      5-min Rain = 0
KCL2 131045Z 18008KT 24/15 A2992 RMK A01 T02400147  RH  056%=      5-min Rain = 0
KCL2 131046Z 18008KT 24/15 A2992 RMK A01 T02420147  RH  055%=      5-min Rain = 0
KCL2 131047Z 18008KT 24/15 A2992 RMK A01 T02430147  RH  055%=      5-min Rain = 0
KCL2 131048Z 18008KT 24/15 A2992 RMK A01 T02440148  RH  055%=      5-min Rain = 0
KCL2 131049Z 18008KT 24/15 A2992 RMK A01 T02440147  RH  055%=      5-min Rain = 0
KCL2 131050Z 18008KT 24/15 A2992 RMK A01 T02440147  RH  055%=      5-min Rain = 0
KCL2 131051Z 18009KT 24/15 A2992 RMK A01 T02430147  RH  055%=      5-min Rain = 0
KCL2 131052Z 18008KT 24/15 A2992 RMK A01 T02430147  RH  055%=      5-min Rain = 0
KCL2 131053Z 18008KT 24/15 A2992 RMK A01 T02430147  RH  055%=      5-min Rain = 0
KCL2 131054Z 18008KT 24/15 A2993 RMK A01 T02420147  RH  055%=      5-min Rain = 0
KCL2 131055Z 18008KT 24/15 A2993 RMK A01 T02420147  RH  055%=      5-min Rain = 0
KCL2 131056Z 19007KT 24/15 A2993 RMK A01 T02410147  RH  055%=      5-min Rain = 0
KCL2 131057Z 18007KT 24/15 A2993 RMK A01 T02410147  RH  056%=      5-min Rain = 0
KCL2 131058Z 18007KT 24/15 A2993 RMK A01 T02410147  RH  056%=      5-min Rain = 0
KCL2 131059Z 18008KT 24/15 A2993 RMK A01 T02410147  RH  056%=      5-min Rain = 0
KCL2 131100Z 19008KT 24/15 A2993 RMK A01 T02410148  RH  056%=      5-min Rain = 0
KCL2 131101Z 19008KT 24/15 A2993 RMK A01 T02400148  RH  056%=      5-min Rain = 0
KCL2 131102Z 19007KT 24/15 A2993 RMK A01 T02390148  RH  057%=      5-min Rain = 0
KCL2 131103Z 19006KT 24/15 A2993 RMK A01 T02380148  RH  057%=      5-min Rain = 0
KCL2 131104Z 18007KT 24/15 A2993 RMK A01 T02370148  RH  057%=      5-min Rain = 0
KCL2 131105Z 18007KT 24/15 A2993 RMK A01 T02360148  RH  057%=      5-min Rain = 0
KCL2 131106Z 18007KT 24/15 A2993 RMK A01 T02360148  RH  058%=      5-min Rain = 0
KCL2 131107Z 18007KT 24/15 A2993 RMK A01 T02360148  RH  058%=      5-min Rain = 0
KCL2 131108Z 18007KT 24/15 A2993 RMK A01 T02360148  RH  058%=      5-min Rain = 0
KCL2 131109Z 18007KT 24/15 A2993 RMK A01 T02350148  RH  058%=      5-min Rain = 0
KCL2 131110Z 18008KT 24/15 A2993 RMK A01 T02350147  RH  058%=      5-min Rain = 0
KCL2 131111Z 18007KT 24/15 A2993 RMK A01 T02350147  RH  058%=      5-min Rain = 0
KCL2 131112Z 18008KT 24/15 A2993 RMK A01 T02350148  RH  058%=      5-min Rain = 0
KCL2 131113Z 18007KT 24/15 A2993 RMK A01 T02350147  RH  058%=      5-min Rain = 0
KCL2 131114Z 18008KT 24/15 A2993 RMK A01 T02350146  RH  057%=      5-min Rain = 0
KCL2 131115Z 18007KT 24/15 A2993 RMK A01 T02360147  RH  057%=      5-min Rain = 0
KCL2 131116Z 18008KT 24/15 A2993 RMK A01 T02360147  RH  057%=      5-min Rain = 0
KCL2 131117Z 18008KT 24/15 A2993 RMK A01 T02360147  RH  057%=      5-min Rain = 0
KCL2 131118Z 18008KT 24/15 A2993 RMK A01 T02360146  RH  057%=      5-min Rain = 0
KCL2 131119Z 18007KT 24/15 A2993 RMK A01 T02360146  RH  057%=      5-min Rain = 0
KCL2 131120Z 18007KT 24/15 A2993 RMK A01 T02370147  RH  057%=      5-min Rain = 0
KCL2 131121Z 18008KT 24/15 A2993 RMK A01 T02370147  RH  057%=      5-min Rain = 0
KCL2 131122Z 18007KT 24/15 A2993 RMK A01 T02370147  RH  057%=      5-min Rain = 0
KCL2 131123Z 18008KT 24/15 A2993 RMK A01 T02360146  RH  057%=      5-min Rain = 0
KCL2 131124Z 18007KT 24/15 A2993 RMK A01 T02360146  RH  057%=      5-min Rain = 0
KCL2 131125Z 18008KT 24/15 A2993 RMK A01 T02360146  RH  057%=      5-min Rain = 0
KCL2 131126Z 18007KT 24/15 A2993 RMK A01 T02360146  RH  057%=      5-min Rain = 0
KCL2 131127Z 19007KT 24/15 A2993 RMK A01 T02360146  RH  057%=      5-min Rain = 0
KCL2 131128Z 18007KT 24/15 A2993 RMK A01 T02360146  RH  057%=      5-min Rain = 0
KCL2 131129Z 18007KT 24/15 A2993 RMK A01 T02360146  RH  057%=      5-min Rain = 0
KCL2 131130Z 18007KT 24/15 A2993 RMK A01 T02360146  RH  057%=      5-min Rain = 0
KCL2 131131Z 18008KT 24/15 A2993 RMK A01 T02360146  RH  057%=      5-min Rain = 0
KCL2 131132Z 18007KT 24/15 A2993 RMK A01 T02370146  RH  057%=      5-min Rain = 0
KCL2 131133Z 18007KT 24/15 A2993 RMK A01 T02370146  RH  057%=      5-min Rain = 0
KCL2 131134Z 18007KT 24/15 A2993 RMK A01 T02370146  RH  056%=      5-min Rain = 0
KCL2 131135Z 18008KT 24/15 A2993 RMK A01 T02370145  RH  056%=      5-min Rain = 0
KCL2 131136Z 18008KT 24/15 A2993 RMK A01 T02370145  RH  056%=      5-min Rain = 0
KCL2 131137Z 18007KT 24/15 A2993 RMK A01 T02380146  RH  056%=      5-min Rain = 0
KCL2 131138Z 18008KT 24/15 A2993 RMK A01 T02380146  RH  056%=      5-min Rain = 0
KCL2 131139Z 18008KT 24/15 A2993 RMK A01 T02380146  RH  056%=      5-min Rain = 0
KCL2 131140Z 18008KT 24/15 A2993 RMK A01 T02380145  RH  056%=      5-min Rain = 0
KCL2 131141Z 18008KT 24/15 A2994 RMK A01 T02390145  RH  056%=      5-min Rain = 0
KCL2 131142Z 18008KT 24/15 A2994 RMK A01 T02390145  RH  056%=      5-min Rain = 0
KCL2 131143Z 18008KT 24/15 A2994 RMK A01 T02390145  RH  055%=      5-min Rain = 0
KCL2 131144Z 18008KT 24/15 A2994 RMK A01 T02400145  RH  055%=      5-min Rain = 0
KCL2 131145Z 18007KT 24/15 A2994 RMK A01 T02400145  RH  055%=      5-min Rain = 0
KCL2 131146Z 18008KT 24/15 A2994 RMK A01 T02400145  RH  055%=      5-min Rain = 0
KCL2 131147Z 18008KT 24/15 A2994 RMK A01 T02400145  RH  055%=      5-min Rain = 0
KCL2 131148Z 18008KT 24/15 A2994 RMK A01 T02400146  RH  055%=      5-min Rain = 0
KCL2 131149Z 18007KT 24/15 A2994 RMK A01 T02400145  RH  055%=      5-min Rain = 0
KCL2 131150Z 18008KT 24/15 A2994 RMK A01 T02390146  RH  056%=      5-min Rain = 0
KCL2 131151Z 18007KT 24/15 A2994 RMK A01 T02390145  RH  056%=      5-min Rain = 0
KCL2 131152Z 18007KT 24/15 A2994 RMK A01 T02380146  RH  056%=      5-min Rain = 0
KCL2 131153Z 18008KT 24/15 A2994 RMK A01 T02380146  RH  056%=      5-min Rain = 0
KCL2 131154Z 18007KT 24/15 A2994 RMK A01 T02380146  RH  056%=      5-min Rain = 0
KCL2 131155Z 18007KT 24/15 A2994 RMK A01 T02370146  RH  057%=      5-min Rain = 0
KCL2 131156Z 18007KT 24/15 A2994 RMK A01 T02370146  RH  056%=      5-min Rain = 0
KCL2 131157Z 18007KT 24/15 A2994 RMK A01 T02370146  RH  056%=      5-min Rain = 0
KCL2 131158Z 18007KT 24/15 A2994 RMK A01 T02370146  RH  056%=      5-min Rain = 0
KCL2 131159Z 18008KT 24/15 A2994 RMK A01 T02380146  RH  056%=      5-min Rain = 0
KCL2 131200Z 18008KT 24/15 A2994 RMK A01 T02380146  RH  056%=      5-min Rain = 0
KCL2 131201Z 18007KT 24/15 A2994 RMK A01 T02380146  RH  056%=      5-min Rain = 0
KCL2 131202Z 18008KT 24/15 A2994 RMK A01 T02380147  RH  056%=      5-min Rain = 0
KCL2 131203Z 18007KT 24/15 A2994 RMK A01 T02380146  RH  056%=      5-min Rain = 0
KCL2 131204Z 18007KT 24/15 A2994 RMK A01 T02380146  RH  056%=      5-min Rain = 0
KCL2 131205Z 18008KT 24/15 A2994 RMK A01 T02380147  RH  056%=      5-min Rain = 0
KCL2 131206Z 18008KT 24/15 A2994 RMK A01 T02380147  RH  057%=      5-min Rain = 0
KCL2 131207Z 18008KT 24/15 A2994 RMK A01 T02380148  RH  057%=      5-min Rain = 0
KCL2 131208Z 18007KT 24/15 A2994 RMK A01 T02380147  RH  057%=      5-min Rain = 0
KCL2 131209Z 18007KT 24/15 A2994 RMK A01 T02380148  RH  057%=      5-min Rain = 0
KCL2 131210Z 18008KT 24/15 A2994 RMK A01 T02370147  RH  057%=      5-min Rain = 0
KCL2 131211Z 18007KT 24/15 A2994 RMK A01 T02380147  RH  057%=      5-min Rain = 0
KCL2 131212Z 18007KT 24/15 A2994 RMK A01 T02380148  RH  057%=      5-min Rain = 0
KCL2 131213Z 17008KT 24/15 A2994 RMK A01 T02380148  RH  057%=      5-min Rain = 0
KCL2 131214Z 18007KT 24/15 A2994 RMK A01 T02380148  RH  057%=      5-min Rain = 0
KCL2 131215Z 17007KT 24/15 A2994 RMK A01 T02390149  RH  057%=      5-min Rain = 0
KCL2 131216Z 17008KT 24/15 A2994 RMK A01 T02380149  RH  057%=      5-min Rain = 0
KCL2 131217Z 18007KT 24/15 A2994 RMK A01 T02390149  RH  057%=      5-min Rain = 0
KCL2 131218Z 18007KT 24/15 A2994 RMK A01 T02380149  RH  057%=      5-min Rain = 0
KCL2 131219Z 18007KT 24/15 A2994 RMK A01 T02380150  RH  058%=      5-min Rain = 0
KCL2 131220Z 18007KT 24/15 A2994 RMK A01 T02370150  RH  058%=      5-min Rain = 0
KCL2 131221Z 18008KT 24/15 A2994 RMK A01 T02370150  RH  058%=      5-min Rain = 0
KCL2 131222Z 18007KT 24/15 A2994 RMK A01 T02370150  RH  058%=      5-min Rain = 0
KCL2 131223Z 18008KT 24/15 A2994 RMK A01 T02370150  RH  058%=      5-min Rain = 0
KCL2 131224Z 18007KT 24/15 A2995 RMK A01 T02380150  RH  058%=      5-min Rain = 0
KCL2 131225Z 18007KT 24/15 A2995 RMK A01 T02380150  RH  058%=      5-min Rain = 0
KCL2 131226Z 18006KT 24/15 A2995 RMK A01 T02380150  RH  058%=      5-min Rain = 0
KCL2 131227Z 18007KT 24/15 A2995 RMK A01 T02380151  RH  058%=      5-min Rain = 0
KCL2 131228Z 18007KT 24/15 A2995 RMK A01 T02390151  RH  058%=      5-min Rain = 0
KCL2 131229Z 18007KT 24/15 A2995 RMK A01 T02380151  RH  058%=      5-min Rain = 0
KCL2 131230Z 18007KT 24/15 A2995 RMK A01 T02380152  RH  058%=      5-min Rain = 0
KCL2 131231Z 18008KT 24/15 A2995 RMK A01 T02380151  RH  058%=      5-min Rain = 0
KCL2 131232Z 18007KT 24/15 A2995 RMK A01 T02380152  RH  058%=      5-min Rain = 0
KCL2 131233Z 18007KT 24/15 A2995 RMK A01 T02390153  RH  059%=      5-min Rain = 0
KCL2 131234Z 18007KT 24/15 A2995 RMK A01 T02390153  RH  058%=      5-min Rain = 0
KCL2 131235Z 18007KT 24/15 A2995 RMK A01 T02390153  RH  058%=      5-min Rain = 0
KCL2 131236Z 18007KT 24/15 A2995 RMK A01 T02390153  RH  058%=      5-min Rain = 0
KCL2 131237Z 18008KT 24/15 A2995 RMK A01 T02400153  RH  058%=      5-min Rain = 0
KCL2 131238Z 18008KT 24/15 A2995 RMK A01 T02410154  RH  058%=      5-min Rain = 0
KCL2 131239Z 18007KT 24/15 A2995 RMK A01 T02410154  RH  058%=      5-min Rain = 0
KCL2 131240Z 18007KT 24/16 A2995 RMK A01 T02410155  RH  058%=      5-min Rain = 0
KCL2 131241Z 18007KT 24/15 A2995 RMK A01 T02410154  RH  058%=      5-min Rain = 0
KCL2 131242Z 18006KT 24/16 A2995 RMK A01 T02420156  RH  059%=      5-min Rain = 0
KCL2 131243Z 18007KT 24/16 A2995 RMK A01 T02420155  RH  058%=      5-min Rain = 0
KCL2 131244Z 19007KT 24/16 A2995 RMK A01 T02420155  RH  058%=      5-min Rain = 0
KCL2 131245Z 19006KT 24/16 A2995 RMK A01 T02420156  RH  058%=      5-min Rain = 0
KCL2 131246Z 19006KT 24/16 A2995 RMK A01 T02430156  RH  058%=      5-min Rain = 0
KCL2 131247Z 18007KT 24/16 A2995 RMK A01 T02430156  RH  058%=      5-min Rain = 0
KCL2 131248Z 18007KT 24/15 A2995 RMK A01 T02440154  RH  057%=      5-min Rain = 0
KCL2 131249Z 18007KT 25/16 A2995 RMK A01 T02450155  RH  057%=      5-min Rain = 0
KCL2 131250Z 18007KT 25/16 A2995 RMK A01 T02450156  RH  057%=      5-min Rain = 0
KCL2 131251Z 18007KT 24/16 A2995 RMK A01 T02440156  RH  058%=      5-min Rain = 0
KCL2 131252Z 19007KT 25/16 A2995 RMK A01 T02450156  RH  058%=      5-min Rain = 0
KCL2 131253Z 19008KT 25/16 A2995 RMK A01 T02450156  RH  058%=      5-min Rain = 0
KCL2 131254Z 19007KT 25/16 A2995 RMK A01 T02460155  RH  057%=      5-min Rain = 0
KCL2 131255Z 19007KT 25/16 A2995 RMK A01 T02480156  RH  057%=      5-min Rain = 0
KCL2 131256Z 19006KT 25/16 A2995 RMK A01 T02490157  RH  056%=      5-min Rain = 0
KCL2 131257Z 20006KT 25/16 A2995 RMK A01 T02510158  RH  056%=      5-min Rain = 0
KCL2 131258Z 19007KT 25/16 A2995 RMK A01 T02520157  RH  056%=      5-min Rain = 0
KCL2 131259Z 19007KT 25/16 A2995 RMK A01 T02540157  RH  055%=      5-min Rain = 0
KCL2 131300Z 19007KT 26/16 A2995 RMK A01 T02550156  RH  054%=      5-min Rain = 0
KCL2 131301Z 19008KT 26/16 A2995 RMK A01 T02560156  RH  054%=      5-min Rain = 0
KCL2 131302Z 19007KT 26/16 A2995 RMK A01 T02570157  RH  054%=      5-min Rain = 0
KCL2 131303Z 20007KT 26/16 A2995 RMK A01 T02580158  RH  054%=      5-min Rain = 0
KCL2 131304Z 19007KT 26/16 A2995 RMK A01 T02580159  RH  054%=      5-min Rain = 0
KCL2 131305Z 19006KT 26/16 A2995 RMK A01 T02590160  RH  054%=      5-min Rain = 0
KCL2 131306Z 20006KT 26/16 A2995 RMK A01 T02600160  RH  054%=      5-min Rain = 0
KCL2 131307Z 20008KT 26/16 A2995 RMK A01 T02600157  RH  053%=      5-min Rain = 0
KCL2 131308Z 20006KT 26/16 A2995 RMK A01 T02610159  RH  053%=      5-min Rain = 0
KCL2 131309Z 20007KT 26/16 A2995 RMK A01 T02620161  RH  054%=      5-min Rain = 0
KCL2 131310Z 20007KT 26/16 A2995 RMK A01 T02620160  RH  053%=      5-min Rain = 0
KCL2 131311Z 20007KT 26/16 A2995 RMK A01 T02620160  RH  053%=      5-min Rain = 0
KCL2 131312Z 20007KT 26/16 A2995 RMK A01 T02630161  RH  053%=      5-min Rain = 0
KCL2 131313Z 21006KT 26/16 A2996 RMK A01 T02630162  RH  054%=      5-min Rain = 0
KCL2 131314Z 21007KT 26/16 A2996 RMK A01 T02640161  RH  053%=      5-min Rain = 0
KCL2 131315Z 21005KT 27/16 A2996 RMK A01 T02650162  RH  053%=      5-min Rain = 0
KCL2 131316Z 21006KT 27/16 A2996 RMK A01 T02660163  RH  053%=      5-min Rain = 0
KCL2 131317Z 22007KT 27/16 A2996 RMK A01 T02670164  RH  053%=      5-min Rain = 0
KCL2 131318Z 22007KT 27/16 A2996 RMK A01 T02690162  RH  052%=      5-min Rain = 0
KCL2 131319Z 22007KT 27/16 A2996 RMK A01 T02690162  RH  052%=      5-min Rain = 0
KCL2 131320Z 22006KT 27/16 A2996 RMK A01 T02700162  RH  052%=      5-min Rain = 0
KCL2 131321Z 21007KT 27/17 A2996 RMK A01 T02710165  RH  052%=      5-min Rain = 0
KCL2 131322Z 22007KT 27/17 A2996 RMK A01 T02730165  RH  052%=      5-min Rain = 0
KCL2 131323Z 22008KT 27/16 A2996 RMK A01 T02730164  RH  051%=      5-min Rain = 0
KCL2 131324Z 21007G12KT 27/16 A2996 RMK A01 T02730164  RH  051%=      5-min Rain = 0
KCL2 131325Z 22009KT 27/16 A2996 RMK A01 T02740163  RH  050%=      5-min Rain = 0
KCL2 131326Z 21007KT 28/16 A2996 RMK A01 T02750163  RH  050%=      5-min Rain = 0
KCL2 131327Z 22008KT 28/17 A2996 RMK A01 T02750165  RH  051%=      5-min Rain = 0
KCL2 131328Z 21007KT 28/17 A2996 RMK A01 T02760165  RH  051%=      5-min Rain = 0
KCL2 131329Z 21010KT 28/16 A2996 RMK A01 T02770164  RH  050%=      5-min Rain = 0
KCL2 131330Z 21009KT 28/16 A2996 RMK A01 T02770163  RH  050%=      5-min Rain = 0
KCL2 131331Z 21009KT 28/16 A2996 RMK A01 T02790164  RH  050%=      5-min Rain = 0
KCL2 131332Z 21008KT 28/16 A2996 RMK A01 T02790164  RH  050%=      5-min Rain = 0
KCL2 131333Z 22008KT 28/16 A2996 RMK A01 T02800164  RH  049%=      5-min Rain = 0
KCL2 131334Z 22008KT 28/17 A2996 RMK A01 T02810166  RH  050%=      5-min Rain = 0
KCL2 131335Z 22010KT 28/16 A2996 RMK A01 T02810164  RH  049%=      5-min Rain = 0
KCL2 131336Z 22009KT 28/17 A2996 RMK A01 T02830166  RH  049%=      5-min Rain = 0
KCL2 131337Z 22009KT 28/17 A2996 RMK A01 T02830167  RH  049%=      5-min Rain = 0
KCL2 131338Z 21009KT 28/17 A2996 RMK A01 T02840166  RH  049%=      5-min Rain = 0
KCL2 131339Z 22009KT 28/17 A2996 RMK A01 T02840168  RH  049%=      5-min Rain = 0
KCL2 131340Z 22010KT 29/17 A2996 RMK A01 T02860166  RH  048%=      5-min Rain = 0
KCL2 131341Z 22010KT 29/17 A2996 RMK A01 T02860167  RH  048%=      5-min Rain = 0
KCL2 131342Z 22010KT 29/17 A2996 RMK A01 T02870166  RH  048%=      5-min Rain = 0
KCL2 131343Z 22011KT 29/17 A2996 RMK A01 T02870166  RH  048%=      5-min Rain = 0
KCL2 131344Z 22011KT 29/17 A2996 RMK A01 T02880165  RH  047%=      5-min Rain = 0
KCL2 131345Z 23009KT 29/17 A2997 RMK A01 T02880168  RH  048%=      5-min Rain = 0
KCL2 131346Z 22011KT 29/17 A2997 RMK A01 T02890167  RH  048%=      5-min Rain = 0
KCL2 131347Z 22010KT 29/17 A2996 RMK A01 T02900166  RH  047%=      5-min Rain = 0
KCL2 131348Z 22011KT 29/17 A2996 RMK A01 T02900167  RH  047%=      5-min Rain = 0
KCL2 131349Z 22011KT 29/17 A2996 RMK A01 T02910167  RH  047%=      5-min Rain = 0
KCL2 131350Z 22011KT 29/17 A2997 RMK A01 T02910168  RH  047%=      5-min Rain = 0
KCL2 131351Z 23010KT 29/17 A2996 RMK A01 T02920168  RH  047%=      5-min Rain = 0
KCL2 131352Z 22011KT 29/17 A2997 RMK A01 T02930169  RH  047%=      5-min Rain = 0
KCL2 131353Z 22011KT 29/17 A2996 RMK A01 T02930168  RH  047%=      5-min Rain = 0
KCL2 131354Z 22013KT 29/17 A2996 RMK A01 T02940168  RH  047%=      5-min Rain = 0
KCL2 131355Z 21013KT 29/17 A2996 RMK A01 T02930169  RH  047%=      5-min Rain = 0
KCL2 131356Z 21012KT 29/17 A2996 RMK A01 T02940169  RH  047%=      5-min Rain = 0
KCL2 131357Z 22012KT 29/17 A2996 RMK A01 T02940168  RH  046%=      5-min Rain = 0
KCL2 131358Z 22013KT 29/17 A2996 RMK A01 T02940168  RH  047%=      5-min Rain = 0
KCL2 131359Z 22013KT 29/17 A2996 RMK A01 T02940170  RH  047%=      5-min Rain = 0
KCL2 131400Z 22011KT 30/17 A2996 RMK A01 T02950170  RH  047%=      5-min Rain = 0
KCL2 131401Z 21012KT 30/17 A2996 RMK A01 T02950170  RH  047%=      5-min Rain = 0
KCL2 131402Z 21014KT 30/17 A2996 RMK A01 T02950170  RH  047%=      5-min Rain = 0
KCL2 131403Z 21014KT 30/17 A2996 RMK A01 T02950170  RH  047%=      5-min Rain = 0
KCL2 131404Z 21013KT 30/17 A2996 RMK A01 T02950169  RH  046%=      5-min Rain = 0
KCL2 131405Z 21013KT 30/17 A2995 RMK A01 T02950170  RH  047%=      5-min Rain = 0
KCL2 131406Z 21010KT 30/17 A2996 RMK A01 T02960172  RH  047%=      5-min Rain = 0
KCL2 131407Z 21013G19KT 30/17 A2996 RMK A01 T02970173  RH  047%=      5-min Rain = 0
KCL2 131408Z 21015KT 30/17 A2996 RMK A01 T02970172  RH  047%=      5-min Rain = 0
KCL2 131409Z 21015KT 30/17 A2996 RMK A01 T02970172  RH  047%=      5-min Rain = 0
KCL2 131410Z 21013KT 30/17 A2996 RMK A01 T02980172  RH  047%=      5-min Rain = 0
KCL2 131411Z 21015KT 30/17 A2996 RMK A01 T02980173  RH  047%=      5-min Rain = 0
KCL2 131412Z 21014KT 30/17 A2996 RMK A01 T02980173  RH  047%=      5-min Rain = 0
KCL2 131413Z 21011G16KT 30/17 A2996 RMK A01 T02990173  RH  047%=      5-min Rain = 0
KCL2 131414Z 21014G19KT 30/17 A2996 RMK A01 T02990174  RH  047%=      5-min Rain = 0
KCL2 131415Z 21011KT 30/17 A2996 RMK A01 T02990174  RH  047%=      5-min Rain = 0
KCL2 131416Z 21010KT 30/18 A2996 RMK A01 T03000176  RH  048%=      5-min Rain = 0
KCL2 131417Z 21014KT 30/18 A2996 RMK A01 T03010176  RH  047%=      5-min Rain = 0
KCL2 131418Z 21015KT 30/17 A2996 RMK A01 T03000174  RH  046%=      5-min Rain = 0
KCL2 131419Z 21013KT 30/17 A2996 RMK A01 T03010174  RH  047%=      5-min Rain = 0
KCL2 131420Z 22013G18KT 30/18 A2996 RMK A01 T03010176  RH  047%=      5-min Rain = 0
KCL2 131421Z 21014KT 30/18 A2996 RMK A01 T03010175  RH  047%=      5-min Rain = 0
KCL2 131422Z 21017G22KT 30/17 A2996 RMK A01 T03010174  RH  047%=      5-min Rain = 0
KCL2 131423Z 21018G23KT 30/17 A2996 RMK A01 T03010172  RH  046%=      5-min Rain = 0
KCL2 131424Z 21015KT 30/17 A2996 RMK A01 T03000174  RH  047%=      5-min Rain = 0
KCL2 131425Z 21016KT 30/18 A2996 RMK A01 T03000176  RH  047%=      5-min Rain = 0
KCL2 131426Z 21016KT 30/18 A2996 RMK A01 T03010175  RH  047%=      5-min Rain = 0
KCL2 131427Z 21016KT 30/17 A2996 RMK A01 T03010174  RH  046%=      5-min Rain = 0
KCL2 131428Z 22015G21KT 30/18 A2996 RMK A01 T03010175  RH  047%=      5-min Rain = 0
KCL2 131429Z 21017KT 30/17 A2996 RMK A01 T03010174  RH  046%=      5-min Rain = 0
KCL2 131430Z 22015G20KT 30/17 A2996 RMK A01 T03010174  RH  047%=      5-min Rain = 0
KCL2 131431Z 22017G23KT 30/17 A2996 RMK A01 T03010174  RH  046%=      5-min Rain = 0
KCL2 131432Z 22015G20KT 30/18 A2996 RMK A01 T03010175  RH  047%=      5-min Rain = 0
KCL2 131433Z 22015KT 30/18 A2996 RMK A01 T03020176  RH  047%=      5-min Rain = 0
KCL2 131434Z 22014KT 30/18 A2996 RMK A01 T03020176  RH  047%=      5-min Rain = 0
KCL2 131435Z 22013KT 30/18 A2996 RMK A01 T03020177  RH  047%=      5-min Rain = 0
KCL2 131436Z 23012KT 30/18 A2996 RMK A01 T03030178  RH  047%=      5-min Rain = 0
KCL2 131437Z 22009KT 30/18 A2996 RMK A01 T03030178  RH  047%=      5-min Rain = 0
KCL2 131438Z 23013KT 31/18 A2996 RMK A01 T03050180  RH  047%=      5-min Rain = 0
KCL2 131439Z 23014KT 31/18 A2996 RMK A01 T03060178  RH  046%=      5-min Rain = 0
KCL2 131440Z 23015KT 31/18 A2996 RMK A01 T03060176  RH  046%=      5-min Rain = 0
KCL2 131441Z 23016KT 31/18 A2996 RMK A01 T03060176  RH  046%=      5-min Rain = 0
KCL2 131442Z 23016KT 31/18 A2996 RMK A01 T03060176  RH  046%=      5-min Rain = 0
KCL2 131443Z 23013KT 31/18 A2996 RMK A01 T03050176  RH  046%=      5-min Rain = 0
KCL2 131444Z 23012KT 31/18 A2996 RMK A01 T03050178  RH  046%=      5-min Rain = 0
KCL2 131445Z 22013KT 31/18 A2996 RMK A01 T03060178  RH  046%=      5-min Rain = 0
KCL2 131446Z 22011KT 31/18 A2996 RMK A01 T03070178  RH  046%=      5-min Rain = 0
KCL2 131447Z 22012G18KT 31/18 A2996 RMK A01 T03090182  RH  047%=      5-min Rain = 0
KCL2 131448Z 22014KT 31/18 A2996 RMK A01 T03100178  RH  045%=      5-min Rain = 0
KCL2 131449Z 22016KT 31/18 A2996 RMK A01 T03090176  RH  045%=      5-min Rain = 0
KCL2 131450Z 22013KT 31/18 A2996 RMK A01 T03080176  RH  045%=      5-min Rain = 0
KCL2 131451Z 22014KT 31/18 A2996 RMK A01 T03080177  RH  046%=      5-min Rain = 0
KCL2 131452Z 22012KT 31/18 A2996 RMK A01 T03090178  RH  046%=      5-min Rain = 0
KCL2 131453Z 21018KT 31/18 A2996 RMK A01 T03090175  RH  045%=      5-min Rain = 0
KCL2 131454Z 22015KT 31/18 A2996 RMK A01 T03090175  RH  045%=      5-min Rain = 0
KCL2 131455Z 21016G21KT 31/18 A2995 RMK A01 T03090175  RH  045%=      5-min Rain = 0
KCL2 131456Z 22019KT 31/17 A2995 RMK A01 T03100173  RH  044%=      5-min Rain = 0
KCL2 131457Z 22017KT 31/17 A2995 RMK A01 T03090172  RH  044%=      5-min Rain = 0
KCL2 131458Z 22016G22KT 31/17 A2996 RMK A01 T03080174  RH  045%=      5-min Rain = 0
KCL2 131459Z 22013KT 31/18 A2995 RMK A01 T03090177  RH  045%=      5-min Rain = 0
KCL2 131500Z 21013KT 31/18 A2995 RMK A01 T03100177  RH  045%=      5-min Rain = 0
KCL2 131501Z 22015KT 31/18 A2995 RMK A01 T03110177  RH  045%=      5-min Rain = 0
KCL2 131502Z 21015G20KT 31/18 A2995 RMK A01 T03120177  RH  044%=      5-min Rain = 0
KCL2 131503Z 22014KT 31/18 A2995 RMK A01 T03120175  RH  044%=      5-min Rain = 0
KCL2 131504Z 22012KT 31/18 A2995 RMK A01 T03120178  RH  045%=      5-min Rain = 0
KCL2 131505Z 22015KT 31/18 A2995 RMK A01 T03140179  RH  045%=      5-min Rain = 0
KCL2 131506Z 22015KT 31/18 A2995 RMK A01 T03140176  RH  044%=      5-min Rain = 0
KCL2 131507Z 22014KT 31/18 A2995 RMK A01 T03140179  RH  045%=      5-min Rain = 0
KCL2 131508Z 22012KT 31/18 A2996 RMK A01 T03140178  RH  044%=      5-min Rain = 0
KCL2 131509Z 22012G17KT 31/18 A2995 RMK A01 T03140180  RH  045%=      5-min Rain = 0
KCL2 131510Z 22010KT 32/18 A2996 RMK A01 T03160181  RH  045%=      5-min Rain = 0
KCL2 131511Z 22011G18KT 32/18 A2996 RMK A01 T03190184  RH  045%=      5-min Rain = 0
KCL2 131512Z 21013KT 32/18 A2996 RMK A01 T03200181  RH  043%=      5-min Rain = 0
KCL2 131513Z 22013G18KT 32/18 A2996 RMK A01 T03200178  RH  043%=      5-min Rain = 0
KCL2 131514Z 21016G21KT 32/18 A2995 RMK A01 T03180179  RH  043%=      5-min Rain = 0
KCL2 131515Z 22017KT 32/18 A2995 RMK A01 T03180178  RH  043%=      5-min Rain = 0
KCL2 131516Z 21014KT 32/18 A2995 RMK A01 T03180178  RH  043%=      5-min Rain = 0
KCL2 131517Z 21017KT 32/18 A2995 RMK A01 T03170177  RH  043%=      5-min Rain = 0
KCL2 131518Z 22018KT 32/18 A2995 RMK A01 T03150176  RH  043%=      5-min Rain = 0
KCL2 131519Z 23016KT 32/17 A2995 RMK A01 T03150174  RH  043%=      5-min Rain = 0
KCL2 131520Z 22013KT 32/18 A2995 RMK A01 T03170177  RH  043%=      5-min Rain = 0
KCL2 131521Z 23014KT 32/18 A2995 RMK A01 T03180179  RH  044%=      5-min Rain = 0
KCL2 131522Z 23014KT 32/18 A2995 RMK A01 T03190180  RH  044%=      5-min Rain = 0
KCL2 131523Z 23013KT 32/18 A2995 RMK A01 T03190178  RH  043%=      5-min Rain = 0
KCL2 131524Z 22014KT 32/18 A2995 RMK A01 T03180180  RH  044%=      5-min Rain = 0
KCL2 131525Z 21014KT 32/18 A2995 RMK A01 T03190178  RH  043%=      5-min Rain = 0
KCL2 131526Z 22020KT 32/18 A2995 RMK A01 T03220179  RH  043%=      5-min Rain = 0
KCL2 131527Z 23017G23KT 32/18 A2995 RMK A01 T03230176  RH  041%=      5-min Rain = 0
KCL2 131528Z 22013G19KT 32/18 A2995 RMK A01 T03230180  RH  043%=      5-min Rain = 0
KCL2 131529Z 22016G22KT 32/18 A2995 RMK A01 T03220176  RH  042%=      5-min Rain = 0
KCL2 131530Z 22017KT 32/17 A2995 RMK A01 T03190174  RH  042%=      5-min Rain = 0
KCL2 131531Z 21015KT 32/18 A2995 RMK A01 T03170175  RH  043%=      5-min Rain = 0
KCL2 131532Z 22016KT 32/18 A2995 RMK A01 T03160175  RH  043%=      5-min Rain = 0
KCL2 131533Z 22014KT 32/18 A2995 RMK A01 T03180177  RH  043%=      5-min Rain = 0
KCL2 131534Z 22011KT 32/18 A2995 RMK A01 T03210181  RH  043%=      5-min Rain = 0
KCL2 131535Z 23014KT 32/18 A2995 RMK A01 T03240181  RH  043%=      5-min Rain = 0
KCL2 131536Z 23013KT 33/18 A2995 RMK A01 T03250180  RH  042%=      5-min Rain = 0
KCL2 131537Z 22011KT 33/18 A2995 RMK A01 T03250180  RH  042%=      5-min Rain = 0
KCL2 131538Z 22010KT 32/18 A2995 RMK A01 T03240181  RH  043%=      5-min Rain = 0
KCL2 131539Z 22014KT 32/18 A2995 RMK A01 T03220180  RH  043%=      5-min Rain = 0
KCL2 131540Z 22016KT 32/18 A2994 RMK A01 T03210178  RH  042%=      5-min Rain = 0
KCL2 131541Z 22013KT 32/18 A2995 RMK A01 T03190176  RH  043%=      5-min Rain = 0
KCL2 131542Z 22013KT 32/18 A2995 RMK A01 T03180178  RH  043%=      5-min Rain = 0
KCL2 131543Z 22015KT 32/17 A2995 RMK A01 T03170174  RH  043%=      5-min Rain = 0
KCL2 131544Z 21012KT 32/18 A2995 RMK A01 T03150175  RH  043%=      5-min Rain = 0
KCL2 131545Z 22010KT 32/18 A2995 RMK A01 T03150177  RH  044%=      5-min Rain = 0
KCL2 131546Z 21010KT 32/18 A2995 RMK A01 T03150178  RH  044%=      5-min Rain = 0
KCL2 131547Z 21009KT 32/18 A2995 RMK A01 T03150182  RH  045%=      5-min Rain = 0
KCL2 131548Z 21007KT 32/18 A2995 RMK A01 T03160184  RH  046%=      5-min Rain = 0
KCL2 131549Z 21009KT 32/19 A2995 RMK A01 T03180185  RH  045%=      5-min Rain = 0
KCL2 131550Z 21011KT 32/18 A2995 RMK A01 T03190183  RH  044%=      5-min Rain = 0
KCL2 131551Z 22010KT 32/18 A2995 RMK A01 T03190182  RH  044%=      5-min Rain = 0
KCL2 131552Z 21013KT 32/18 A2995 RMK A01 T03180181  RH  044%=      5-min Rain = 0
KCL2 131553Z 22013G19KT 32/18 A2995 RMK A01 T03210181  RH  044%=      5-min Rain = 0
KCL2 131554Z 22017KT 32/18 A2995 RMK A01 T03220177  RH  042%=      5-min Rain = 0
KCL2 131555Z 23016KT 32/18 A2995 RMK A01 T03220176  RH  042%=      5-min Rain = 0
KCL2 131556Z 22013KT 32/18 A2995 RMK A01 T03210177  RH  042%=      5-min Rain = 0
KCL2 131557Z 23013KT 32/18 A2995 RMK A01 T03230180  RH  043%=      5-min Rain = 0
KCL2 131558Z 22011KT 33/18 A2995 RMK A01 T03250180  RH  042%=      5-min Rain = 0
KCL2 131559Z 22011KT 33/18 A2995 RMK A01 T03260183  RH  043%=      5-min Rain = 0
KCL2 131600Z 22010G15KT 33/18 A2995 RMK A01 T03280182  RH  042%=      5-min Rain = 0
KCL2 131601Z 20011KT 33/18 A2995 RMK A01 T03300184  RH  042%=      5-min Rain = 0
KCL2 131602Z 21009G16KT 33/19 A2995 RMK A01 T03300188  RH  043%=      5-min Rain = 0
KCL2 131603Z 22013KT 33/19 A2995 RMK A01 T03330185  RH  041%=      5-min Rain = 0
KCL2 131604Z 21016KT 33/18 A2995 RMK A01 T03340183  RH  041%=      5-min Rain = 0
KCL2 131605Z 22015KT 33/18 A2995 RMK A01 T03340181  RH  040%=      5-min Rain = 0
KCL2 131606Z 22015KT 33/18 A2995 RMK A01 T03320179  RH  040%=      5-min Rain = 0
KCL2 131607Z 22015KT 33/18 A2995 RMK A01 T03320180  RH  040%=      5-min Rain = 0
KCL2 131608Z 22011KT 33/18 A2995 RMK A01 T03310183  RH  041%=      5-min Rain = 0
KCL2 131609Z 22012KT 33/18 A2995 RMK A01 T03330184  RH  041%=      5-min Rain = 0
KCL2 131610Z 21010KT 33/19 A2995 RMK A01 T03340186  RH  041%=      5-min Rain = 0
KCL2 131611Z 21010KT 34/19 A2995 RMK A01 T03360189  RH  042%=      5-min Rain = 0
KCL2 131612Z 20011KT 34/19 A2995 RMK A01 T03390189  RH  041%=      5-min Rain = 0
KCL2 131613Z 21012KT 34/19 A2995 RMK A01 T03390186  RH  040%=      5-min Rain = 0
KCL2 131614Z 20013KT 34/19 A2995 RMK A01 T03370188  RH  041%=      5-min Rain = 0
KCL2 131615Z 21013KT 34/19 A2995 RMK A01 T03370186  RH  041%=      5-min Rain = 0
KCL2 131616Z 21011KT 34/19 A2995 RMK A01 T03350186  RH  041%=      5-min Rain = 0
KCL2 131617Z 21011KT 34/19 A2995 RMK A01 T03350191  RH  043%=      5-min Rain = 0
KCL2 131618Z 19013KT 34/19 A2994 RMK A01 T03370189  RH  042%=      5-min Rain = 0
KCL2 131619Z 19012KT 34/19 A2994 RMK A01 T03370189  RH  042%=      5-min Rain = 0
KCL2 131620Z 21012KT 34/19 A2995 RMK A01 T03370186  RH  041%=      5-min Rain = 0
KCL2 131621Z 21012KT 34/19 A2995 RMK A01 T03370185  RH  041%=      5-min Rain = 0
KCL2 131622Z 21012KT 34/19 A2995 RMK A01 T03360185  RH  041%=      5-min Rain = 0
KCL2 131623Z 21011KT 34/19 A2995 RMK A01 T03360185  RH  041%=      5-min Rain = 0
KCL2 131624Z 21011KT 34/19 A2995 RMK A01 T03370189  RH  042%=      5-min Rain = 0
KCL2 131625Z 21013KT 34/19 A2995 RMK A01 T03390185  RH  040%=      5-min Rain = 0
KCL2 131626Z 22013KT 34/19 A2995 RMK A01 T03400186  RH  040%=      5-min Rain = 0
KCL2 131627Z 22010KT 34/19 A2995 RMK A01 T03430192  RH  041%=      5-min Rain = 0
KCL2 131628Z 22012KT 35/19 A2995 RMK A01 T03470189  RH  039%=      5-min Rain = 0
KCL2 131629Z 22009KT 35/19 A2995 RMK A01 T03470190  RH  040%=      5-min Rain = 0
KCL2 131630Z 22011KT 35/19 A2995 RMK A01 T03480189  RH  039%=      5-min Rain = 0
KCL2 131631Z 21009KT 35/19 A2995 RMK A01 T03490192  RH  040%=      5-min Rain = 0
KCL2 131632Z 20011G16KT 35/19 A2994 RMK A01 T03500189  RH  039%=      5-min Rain = 0
KCL2 131633Z 22013KT 35/19 A2995 RMK A01 T03470186  RH  039%=      5-min Rain = 0
KCL2 131634Z 20012KT 34/19 A2995 RMK A01 T03440186  RH  039%=      5-min Rain = 0
KCL2 131635Z 21010KT 34/19 A2995 RMK A01 T03440189  RH  040%=      5-min Rain = 0
KCL2 131636Z 21011KT 35/19 A2995 RMK A01 T03470191  RH  040%=      5-min Rain = 0
KCL2 131637Z 21015KT 35/19 A2994 RMK A01 T03480187  RH  039%=      5-min Rain = 0
KCL2 131638Z 21013KT 35/19 A2995 RMK A01 T03460185  RH  039%=      5-min Rain = 0
KCL2 131639Z 21014KT 35/19 A2995 RMK A01 T03450186  RH  039%=      5-min Rain = 0
KCL2 131640Z 22014KT 34/18 A2994 RMK A01 T03440184  RH  039%=      5-min Rain = 0
KCL2 131641Z 20012KT 34/19 A2994 RMK A01 T03420187  RH  040%=      5-min Rain = 0
KCL2 131642Z 20011G16KT 35/19 A2994 RMK A01 T03450188  RH  040%=      5-min Rain = 0
KCL2 131643Z 19017KT 35/19 A2994 RMK A01 T03470186  RH  039%=      5-min Rain = 0
KCL2 131644Z 21013KT 35/19 A2994 RMK A01 T03460185  RH  039%=      5-min Rain = 0
KCL2 131645Z 21011KT 35/19 A2994 RMK A01 T03470192  RH  040%=      5-min Rain = 0
KCL2 131646Z 21012G17KT 35/19 A2994 RMK A01 T03500189  RH  039%=      5-min Rain = 0
KCL2 131647Z 21016KT 35/19 A2994 RMK A01 T03500187  RH  038%=      5-min Rain = 0
KCL2 131648Z 22013KT 35/19 A2994 RMK A01 T03480186  RH  039%=      5-min Rain = 0
KCL2 131649Z 21014KT 35/19 A2994 RMK A01 T03460186  RH  039%=      5-min Rain = 0
KCL2 131650Z 21014KT 34/19 A2994 RMK A01 T03430186  RH  040%=      5-min Rain = 0
KCL2 131651Z 21014KT 34/19 A2994 RMK A01 T03410187  RH  040%=      5-min Rain = 0
KCL2 131652Z 22011KT 34/19 A2994 RMK A01 T03410187  RH  040%=      5-min Rain = 0
KCL2 131653Z 21011KT 34/19 A2994 RMK A01 T03400189  RH  041%=      5-min Rain = 0
KCL2 131654Z 21010KT 34/19 A2994 RMK A01 T03400189  RH  041%=      5-min Rain = 0
KCL2 131655Z 21011KT 34/19 A2994 RMK A01 T03410191  RH  041%=      5-min Rain = 0
KCL2 131656Z 22011KT 34/19 A2994 RMK A01 T03420189  RH  040%=      5-min Rain = 0
KCL2 131657Z 22012KT 34/19 A2994 RMK A01 T03440191  RH  041%=      5-min Rain = 0
KCL2 131658Z 21012KT 35/19 A2994 RMK A01 T03480190  RH  039%=      5-min Rain = 0
KCL2 131659Z 21011KT 35/19 A2994 RMK A01 T03490192  RH  040%=      5-min Rain = 0
KCL2 131700Z 21010KT 35/19 A2994 RMK A01 T03530193  RH  039%=      5-min Rain = 0
KCL2 131701Z 21010G16KT 35/19 A2994 RMK A01 T03530192  RH  039%=      5-min Rain = 0
KCL2 131702Z 21014KT 35/19 A2994 RMK A01 T03520189  RH  038%=      5-min Rain = 0
KCL2 131703Z 22012KT 35/19 A2994 RMK A01 T03500188  RH  039%=      5-min Rain = 0
KCL2 131704Z 21009KT 35/19 A2994 RMK A01 T03510194  RH  040%=      5-min Rain = 0
KCL2 131705Z 22010KT 36/20 A2994 RMK A01 T03560198  RH  040%=      5-min Rain = 0
KCL2 131706Z 23013KT 36/19 A2994 RMK A01 T03580193  RH  038%=      5-min Rain = 0
KCL2 131707Z 23015KT 36/19 A2994 RMK A01 T03590188  RH  037%=      5-min Rain = 0
KCL2 131708Z 21014G19KT 36/19 A2993 RMK A01 T03580185  RH  036%=      5-min Rain = 0
KCL2 131709Z 20015KT 36/19 A2993 RMK A01 T03600186  RH  036%=      5-min Rain = 0
KCL2 131710Z 22015KT 36/19 A2993 RMK A01 T03610186  RH  036%=      5-min Rain = 0
KCL2 131711Z 21018KT 36/18 A2993 RMK A01 T03610180  RH  034%=      5-min Rain = 0
KCL2 131712Z 21016KT 36/18 A2993 RMK A01 T03610179  RH  034%=      5-min Rain = 0
KCL2 131713Z 22016G21KT 36/18 A2993 RMK A01 T03610180  RH  034%=      5-min Rain = 0
KCL2 131714Z 21014KT 36/18 A2993 RMK A01 T03590179  RH  035%=      5-min Rain = 0
KCL2 131715Z 21016KT 36/18 A2993 RMK A01 T03580179  RH  035%=      5-min Rain = 0
KCL2 131716Z 21015KT 36/18 A2993 RMK A01 T03600180  RH  035%=      5-min Rain = 0
KCL2 131717Z 21016KT 36/18 A2993 RMK A01 T03600178  RH  034%=      5-min Rain = 0
KCL2 131718Z 21014G21KT 36/18 A2993 RMK A01 T03620181  RH  035%=      5-min Rain = 0
KCL2 131719Z 21015KT 36/18 A2993 RMK A01 T03620180  RH  034%=      5-min Rain = 0
KCL2 131720Z 21015KT 36/18 A2993 RMK A01 T03610178  RH  034%=      5-min Rain = 0
KCL2 131721Z 21013KT 36/17 A2993 RMK A01 T03580174  RH  034%=      5-min Rain = 0
KCL2 131722Z 20014KT 35/18 A2993 RMK A01 T03540175  RH  035%=      5-min Rain = 0
KCL2 131723Z 21015KT 35/17 A2993 RMK A01 T03510173  RH  035%=      5-min Rain = 0
KCL2 131724Z 20012KT 35/17 A2993 RMK A01 T03500172  RH  035%=      5-min Rain = 0
KCL2 131725Z 21013KT 35/18 A2993 RMK A01 T03490175  RH  036%=      5-min Rain = 0
KCL2 131726Z 20014KT 35/17 A2993 RMK A01 T03490172  RH  035%=      5-min Rain = 0
KCL2 131727Z 22014KT 35/17 A2993 RMK A01 T03480169  RH  034%=      5-min Rain = 0
KCL2 131728Z 21013G19KT 35/17 A2993 RMK A01 T03480172  RH  035%=      5-min Rain = 0
KCL2 131729Z 22016KT 35/17 A2993 RMK A01 T03480171  RH  035%=      5-min Rain = 0
KCL2 131730Z 22013G18KT 35/17 A2993 RMK A01 T03480171  RH  035%=      5-min Rain = 0
KCL2 131731Z 21012KT 35/18 A2993 RMK A01 T03480176  RH  036%=      5-min Rain = 0
KCL2 131732Z 20012KT 35/18 A2993 RMK A01 T03470179  RH  037%=      5-min Rain = 0
KCL2 131733Z 20011KT 35/18 A2993 RMK A01 T03480183  RH  038%=      5-min Rain = 0
KCL2 131734Z 20009KT 35/19 A2993 RMK A01 T03470185  RH  039%=      5-min Rain = 0
KCL2 131735Z 20012G17KT 35/18 A2993 RMK A01 T03470182  RH  038%=      5-min Rain = 0
KCL2 131736Z 20013G19KT 35/18 A2993 RMK A01 T03480175  RH  036%=      5-min Rain = 0
KCL2 131737Z 20014KT 35/17 A2993 RMK A01 T03480167  RH  034%=      5-min Rain = 0
KCL2 131738Z 20016KT 35/16 A2993 RMK A01 T03480164  RH  034%=      5-min Rain = 0
KCL2 131739Z 21013KT 35/16 A2993 RMK A01 T03480164  RH  034%=      5-min Rain = 0
KCL2 131740Z 20012KT 35/17 A2993 RMK A01 T03470167  RH  034%=      5-min Rain = 0
KCL2 131741Z 20012KT 35/17 A2993 RMK A01 T03480168  RH  034%=      5-min Rain = 0
KCL2 131742Z 22012KT 35/17 A2993 RMK A01 T03480169  RH  035%=      5-min Rain = 0
KCL2 131743Z 21011G16KT 35/17 A2993 RMK A01 T03480167  RH  034%=      5-min Rain = 0
KCL2 131744Z 21014KT 35/17 A2993 RMK A01 T03480168  RH  034%=      5-min Rain = 0
KCL2 131745Z 21010KT 35/17 A2993 RMK A01 T03490168  RH  034%=      5-min Rain = 0
KCL2 131746Z 21009KT 35/17 A2993 RMK A01 T03490172  RH  035%=      5-min Rain = 0
KCL2 131747Z 21012KT 35/17 A2992 RMK A01 T03490171  RH  035%=      5-min Rain = 0
KCL2 131748Z 20013KT 35/17 A2992 RMK A01 T03500168  RH  034%=      5-min Rain = 0
KCL2 131749Z 20012KT 35/17 A2992 RMK A01 T03500168  RH  034%=      5-min Rain = 0
KCL2 131750Z 21010KT 35/17 A2992 RMK A01 T03500169  RH  034%=      5-min Rain = 0
KCL2 131751Z 21011KT 35/17 A2992 RMK A01 T03500171  RH  035%=      5-min Rain = 0
KCL2 131752Z 21013KT 35/17 A2992 RMK A01 T03500167  RH  034%=      5-min Rain = 0
KCL2 131753Z 20009KT 35/17 A2992 RMK A01 T03510170  RH  034%=      5-min Rain = 0
KCL2 131754Z 20013G18KT 35/17 A2992 RMK A01 T03520170  RH  034%=      5-min Rain = 0
KCL2 131755Z 19013KT 35/17 A2992 RMK A01 T03520166  RH  033%=      5-min Rain = 0
KCL2 131756Z 20012KT 35/17 A2992 RMK A01 T03520167  RH  033%=      5-min Rain = 0
KCL2 131757Z 20012KT 35/17 A2992 RMK A01 T03530167  RH  033%=      5-min Rain = 0
KCL2 131758Z 20013KT 35/17 A2992 RMK A01 T03530166  RH  033%=      5-min Rain = 0
KCL2 131759Z 21013KT 35/17 A2992 RMK A01 T03530167  RH  033%=      5-min Rain = 0
KCL2 131800Z 20009KT 35/17 A2992 RMK A01 T03540169  RH  034%=      5-min Rain = 0
KCL2 131801Z 19010KT 36/18 A2992 RMK A01 T03550175  RH  034%=      5-min Rain = 0
KCL2 131802Z 19010KT 36/17 A2992 RMK A01 T03570174  RH  034%=      5-min Rain = 0
KCL2 131803Z 19010KT 36/17 A2992 RMK A01 T03570172  RH  034%=      5-min Rain = 0
KCL2 131804Z 20012KT 36/18 A2992 RMK A01 T03570175  RH  034%=      5-min Rain = 0
KCL2 131805Z 19010KT 36/17 A2992 RMK A01 T03570171  RH  033%=      5-min Rain = 0
KCL2 131806Z 18010KT 36/17 A2992 RMK A01 T03570173  RH  034%=      5-min Rain = 0
KCL2 131807Z 19012KT 36/17 A2992 RMK A01 T03580172  RH  033%=      5-min Rain = 0
KCL2 131808Z 19013KT 36/16 A2992 RMK A01 T03580164  RH  032%=      5-min Rain = 0
KCL2 131809Z 19013KT 36/16 A2992 RMK A01 T03580163  RH  031%=      5-min Rain = 0
KCL2 131810Z 19010KT 36/17 A2992 RMK A01 T03580166  RH  032%=      5-min Rain = 0
KCL2 131811Z 20013KT 36/16 A2992 RMK A01 T03570164  RH  032%=      5-min Rain = 0
KCL2 131812Z 21010KT 36/17 A2992 RMK A01 T03570165  RH  032%=      5-min Rain = 0
KCL2 131813Z 21013KT 36/17 A2992 RMK A01 T03570166  RH  032%=      5-min Rain = 0
KCL2 131814Z 21013KT 36/17 A2992 RMK A01 T03570166  RH  032%=      5-min Rain = 0
KCL2 131815Z 19010KT 36/17 A2992 RMK A01 T03580171  RH  033%=      5-min Rain = 0
KCL2 131816Z 20011KT 36/17 A2992 RMK A01 T03580172  RH  034%=      5-min Rain = 0
KCL2 131817Z 20013KT 36/17 A2992 RMK A01 T03580166  RH  032%=      5-min Rain = 0
KCL2 131818Z 20012KT 36/16 A2992 RMK A01 T03580164  RH  032%=      5-min Rain = 0
KCL2 131819Z 21012KT 36/17 A2992 RMK A01 T03580165  RH  032%=      5-min Rain = 0
KCL2 131820Z 21013KT 36/17 A2992 RMK A01 T03580167  RH  032%=      5-min Rain = 0
KCL2 131821Z 21013KT 36/16 A2992 RMK A01 T03580164  RH  032%=      5-min Rain = 0
KCL2 131822Z 20010KT 36/17 A2992 RMK A01 T03580167  RH  032%=      5-min Rain = 0
KCL2 131823Z 20009KT 36/17 A2992 RMK A01 T03580172  RH  033%=      5-min Rain = 0
KCL2 131824Z 20009KT 36/18 A2992 RMK A01 T03590175  RH  034%=      5-min Rain = 0
KCL2 131825Z 21011KT 36/17 A2991 RMK A01 T03590169  RH  032%=      5-min Rain = 0
KCL2 131826Z 20009KT 36/17 A2991 RMK A01 T03590172  RH  033%=      5-min Rain = 0
KCL2 131827Z 21010KT 36/17 A2991 RMK A01 T03600173  RH  033%=      5-min Rain = 0
KCL2 131828Z 19008KT 36/18 A2991 RMK A01 T03600176  RH  034%=      5-min Rain = 0
KCL2 131829Z 20011KT 36/18 A2991 RMK A01 T03600176  RH  034%=      5-min Rain = 0
KCL2 131830Z 20011KT 36/17 A2991 RMK A01 T03600174  RH  033%=      5-min Rain = 0
KCL2 131831Z 20012KT 36/17 A2991 RMK A01 T03610172  RH  033%=      5-min Rain = 0
KCL2 131832Z 19012KT 36/17 A2991 RMK A01 T03600173  RH  033%=      5-min Rain = 0
KCL2 131833Z 19013KT 36/17 A2991 RMK A01 T03610166  RH  032%=      5-min Rain = 0
KCL2 131834Z 20011KT 36/17 A2991 RMK A01 T03600166  RH  032%=      5-min Rain = 0
KCL2 131835Z 19012KT 36/17 A2991 RMK A01 T03600168  RH  032%=      5-min Rain = 0
KCL2 131836Z 19011KT 36/17 A2991 RMK A01 T03610171  RH  033%=      5-min Rain = 0
KCL2 131837Z 19011KT 36/17 A2991 RMK A01 T03610173  RH  033%=      5-min Rain = 0
KCL2 131838Z 19011KT 36/17 A2991 RMK A01 T03620171  RH  032%=      5-min Rain = 0
KCL2 131839Z 20009KT 36/17 A2991 RMK A01 T03620172  RH  033%=      5-min Rain = 0
KCL2 131840Z 20009KT 36/18 A2991 RMK A01 T03620176  RH  033%=      5-min Rain = 0
KCL2 131841Z 20010KT 36/17 A2991 RMK A01 T03630174  RH  033%=      5-min Rain = 0
KCL2 131842Z 19008KT 36/17 A2991 RMK A01 T03640174  RH  033%=      5-min Rain = 0
KCL2 131843Z 19008KT 37/18 A2991 RMK A01 T03650179  RH  034%=      5-min Rain = 0
KCL2 131844Z 18013KT 37/17 A2991 RMK A01 T03650172  RH  032%=      5-min Rain = 0
KCL2 131845Z 19010KT 37/17 A2991 RMK A01 T03660170  RH  032%=      5-min Rain = 0
KCL2 131846Z 20013KT 37/17 A2991 RMK A01 T03650172  RH  032%=      5-min Rain = 0
KCL2 131847Z 19013KT 37/17 A2991 RMK A01 T03660170  RH  032%=      5-min Rain = 0
KCL2 131848Z 20016KT 37/17 A2991 RMK A01 T03660166  RH  031%=      5-min Rain = 0
KCL2 131849Z 20013KT 37/17 A2991 RMK A01 T03670168  RH  031%=      5-min Rain = 0
KCL2 131850Z 20015KT 37/17 A2991 RMK A01 T03690170  RH  031%=      5-min Rain = 0
KCL2 131851Z 20014KT 37/17 A2991 RMK A01 T03710167  RH  030%=      5-min Rain = 0
KCL2 131852Z 20011KT 37/17 A2991 RMK A01 T03740172  RH  031%=      5-min Rain = 0
KCL2 131853Z 20012KT 38/17 A2991 RMK A01 T03770167  RH  029%=      5-min Rain = 0
KCL2 131854Z 19012KT 38/17 A2991 RMK A01 T03770170  RH  030%=      5-min Rain = 0
KCL2 131855Z 18012KT 38/17 A2991 RMK A01 T03800173  RH  030%=      5-min Rain = 0
KCL2 131856Z 19012G17KT 38/17 A2991 RMK A01 T03830170  RH  029%=      5-min Rain = 0
KCL2 131857Z 18014KT 38/17 A2991 RMK A01 T03830167  RH  028%=      5-min Rain = 0
KCL2 131858Z 20012KT 38/17 A2991 RMK A01 T03830167  RH  028%=      5-min Rain = 0
KCL2 131859Z 19013KT 38/17 A2991 RMK A01 T03810165  RH  028%=      5-min Rain = 0
KCL2 131900Z 19014KT 38/17 A299 RMK A01 T03800165  RH  028%=      5-min Rain = 0
KCL2 131901Z 19013KT 38/16 A299 RMK A01 T03780163  RH  028%=      5-min Rain = 0
KCL2 131902Z 20011KT 38/17 A299 RMK A01 T03750167  RH  029%=      5-min Rain = 0
KCL2 131903Z 19013KT 37/17 A299 RMK A01 T03730165  RH  029%=      5-min Rain = 0
KCL2 131904Z 20013KT 37/16 A299 RMK A01 T03720163  RH  029%=      5-min Rain = 0
KCL2 131905Z 20013KT 37/17 A299 RMK A01 T03700166  RH  030%=      5-min Rain = 0
KCL2 131906Z 20008KT 37/17 A299 RMK A01 T03730174  RH  031%=      5-min Rain = 0
KCL2 131907Z 20011KT 38/17 A299 RMK A01 T03790172  RH  030%=      5-min Rain = 0
KCL2 131908Z 19014KT 38/17 A299 RMK A01 T03790169  RH  029%=      5-min Rain = 0
KCL2 131909Z 19015KT 38/17 A299 RMK A01 T03800168  RH  029%=      5-min Rain = 0
KCL2 131910Z 21011KT 38/17 A299 RMK A01 T03800172  RH  030%=      5-min Rain = 0
KCL2 131911Z 19010KT 38/17 A299 RMK A01 T03820174  RH  030%=      5-min Rain = 0
KCL2 131912Z 20011KT 39/18 A299 RMK A01 T03850175  RH  029%=      5-min Rain = 0
KCL2 131913Z 19011KT 39/17 A299 RMK A01 T03860171  RH  028%=      5-min Rain = 0
KCL2 131914Z 18010KT 38/17 A299 RMK A01 T03840172  RH  029%=      5-min Rain = 0
KCL2 131915Z 18010KT 38/18 A299 RMK A01 T03830178  RH  030%=      5-min Rain = 0
KCL2 131916Z 19013KT 39/17 A299 RMK A01 T03860173  RH  029%=      5-min Rain = 0
KCL2 131917Z 19013KT 39/17 A299 RMK A01 T03870169  RH  028%=      5-min Rain = 0
KCL2 131918Z 18013KT 39/17 A299 RMK A01 T03850171  RH  029%=      5-min Rain = 0
KCL2 131919Z 18016KT 39/16 A2989 RMK A01 T03850162  RH  027%=      5-min Rain = 0
KCL2 131920Z 18014KT 38/17 A2989 RMK A01 T03840167  RH  028%=      5-min Rain = 0
KCL2 131921Z 19014KT 39/17 A2989 RMK A01 T03860173  RH  029%=      5-min Rain = 0
KCL2 131922Z 18015KT 39/17 A2989 RMK A01 T03900169  RH  027%=      5-min Rain = 0
KCL2 131923Z 19014KT 39/17 A2989 RMK A01 T03890167  RH  027%=      5-min Rain = 0
KCL2 131924Z 20013KT 39/17 A2989 RMK A01 T03870167  RH  028%=      5-min Rain = 0
KCL2 131925Z 19013KT 39/17 A2989 RMK A01 T03870166  RH  028%=      5-min Rain = 0
KCL2 131926Z 19009KT 39/17 A2989 RMK A01 T03870168  RH  028%=      5-min Rain = 0
KCL2 131927Z 20013KT 39/17 A2989 RMK A01 T03870167  RH  028%=      5-min Rain = 0
KCL2 131928Z 21014KT 39/17 A2989 RMK A01 T03870168  RH  028%=      5-min Rain = 0
KCL2 131929Z 21015KT 39/16 A2989 RMK A01 T03850163  RH  027%=      5-min Rain = 0
KCL2 131930Z 21013KT 38/16 A2989 RMK A01 T03820161  RH  027%=      5-min Rain = 0
KCL2 131931Z 20012KT 38/16 A2989 RMK A01 T03800162  RH  028%=      5-min Rain = 0
KCL2 131932Z 19010KT 38/17 A2989 RMK A01 T03800167  RH  029%=      5-min Rain = 0
KCL2 131933Z 20012KT 38/17 A2989 RMK A01 T03820167  RH  028%=      5-min Rain = 0
KCL2 131934Z 19010KT 38/17 A2989 RMK A01 T03840168  RH  028%=      5-min Rain = 0
KCL2 131935Z 18014KT 39/17 A2989 RMK A01 T03860167  RH  028%=      5-min Rain = 0
KCL2 131936Z 18012KT 39/16 A2989 RMK A01 T03870161  RH  027%=      5-min Rain = 0
KCL2 131937Z 19012KT 39/16 A2989 RMK A01 T03850159  RH  026%=      5-min Rain = 0
KCL2 131938Z 20012KT 38/16 A2989 RMK A01 T03830160  RH  027%=      5-min Rain = 0
KCL2 131939Z 19012KT 38/16 A2989 RMK A01 T03830164  RH  028%=      5-min Rain = 0
KCL2 131940Z 18011KT 39/16 A2989 RMK A01 T03850161  RH  027%=      5-min Rain = 0
KCL2 131941Z 18016KT 39/16 A2989 RMK A01 T03860160  RH  027%=      5-min Rain = 0
KCL2 131942Z 20014KT 39/16 A2989 RMK A01 T03850158  RH  026%=      5-min Rain = 0
KCL2 131943Z 18012G17KT 38/16 A2989 RMK A01 T03830161  RH  027%=      5-min Rain = 0
KCL2 131944Z 19012KT 38/16 A2989 RMK A01 T03820164  RH  028%=      5-min Rain = 0
KCL2 131945Z 20014KT 38/16 A2989 RMK A01 T03810159  RH  027%=      5-min Rain = 0
KCL2 131946Z 20012KT 38/16 A2989 RMK A01 T03800161  RH  028%=      5-min Rain = 0
KCL2 131947Z 20011KT 38/16 A2989 RMK A01 T03800157  RH  027%=      5-min Rain = 0
KCL2 131948Z 21009KT 38/16 A2989 RMK A01 T03820161  RH  027%=      5-min Rain = 0
KCL2 131949Z 21010KT 39/17 A2989 RMK A01 T03880169  RH  028%=      5-min Rain = 0
KCL2 131950Z 21011KT 40/16 A2989 RMK A01 T03950164  RH  026%=      5-min Rain = 0
KCL2 131951Z 21013KT 40/16 A2989 RMK A01 T03980160  RH  025%=      5-min Rain = 0
KCL2 131952Z 20010KT 40/17 A2989 RMK A01 T03960165  RH  026%=      5-min Rain = 0
KCL2 131953Z 19011KT 40/16 A2989 RMK A01 T03950164  RH  026%=      5-min Rain = 0
KCL2 131954Z 19010KT 39/17 A2989 RMK A01 T03940166  RH  026%=      5-min Rain = 0
KCL2 131955Z 19010KT 39/17 A2989 RMK A01 T03930165  RH  026%=      5-min Rain = 0
KCL2 131956Z 19010KT 39/16 A2988 RMK A01 T03920159  RH  026%=      5-min Rain = 0
KCL2 131957Z 18014G19KT 39/16 A2988 RMK A01 T03910159  RH  026%=      5-min Rain = 0
KCL2 131958Z 19016KT 39/15 A2988 RMK A01 T03920148  RH  024%=      5-min Rain = 0
KCL2 131959Z 20014KT 39/15 A2988 RMK A01 T03910150  RH  024%=      5-min Rain = 0
KCL2 132000Z 19011KT 39/16 A2988 RMK A01 T03920157  RH  025%=      5-min Rain = 0
KCL2 132001Z 21012KT 40/16 A2988 RMK A01 T03980162  RH  025%=      5-min Rain = 0
KCL2 132002Z 21012KT 40/16 A2988 RMK A01 T04010156  RH  024%=      5-min Rain = 0
KCL2 132003Z 20012KT 40/16 A2988 RMK A01 T04000158  RH  024%=      5-min Rain = 0
KCL2 132004Z 21014KT 40/15 A2988 RMK A01 T04000154  RH  024%=      5-min Rain = 0
KCL2 132005Z 22009KT 40/15 A2988 RMK A01 T03970151  RH  024%=      5-min Rain = 0
KCL2 132006Z 22009KT 39/15 A2988 RMK A01 T03930152  RH  024%=      5-min Rain = 0
KCL2 132007Z 21011KT 39/16 A2988 RMK A01 T03920157  RH  025%=      5-min Rain = 0
KCL2 132008Z 21013KT 39/15 A2988 RMK A01 T03930154  RH  025%=      5-min Rain = 0
KCL2 132009Z 20013KT 39/15 A2988 RMK A01 T03920153  RH  025%=      5-min Rain = 0
KCL2 132010Z 20011KT 39/15 A2988 RMK A01 T03920154  RH  025%=      5-min Rain = 0
KCL2 132011Z 18011KT 39/15 A2988 RMK A01 T03910150  RH  024%=      5-min Rain = 0
KCL2 132012Z 18012KT 39/15 A2988 RMK A01 T03910152  RH  025%=      5-min Rain = 0
KCL2 132013Z 19012KT 39/15 A2988 RMK A01 T03910150  RH  024%=      5-min Rain = 0
KCL2 132014Z 18013KT 39/15 A2988 RMK A01 T03900146  RH  024%=      5-min Rain = 0
KCL2 132015Z 21013KT 39/15 A2988 RMK A01 T03910154  RH  025%=      5-min Rain = 0
KCL2 132016Z 20014KT 39/16 A2988 RMK A01 T03940155  RH  025%=      5-min Rain = 0
KCL2 132017Z 19013KT 40/15 A2988 RMK A01 T03960151  RH  024%=      5-min Rain = 0
KCL2 132018Z 19011KT 40/15 A2987 RMK A01 T03960153  RH  024%=      5-min Rain = 0
KCL2 132019Z 20015KT 40/15 A2987 RMK A01 T03970153  RH  024%=      5-min Rain = 0
KCL2 132020Z 21013KT 40/15 A2987 RMK A01 T04000152  RH  023%=      5-min Rain = 0
KCL2 132021Z 20012KT 40/16 A2987 RMK A01 T04010156  RH  024%=      5-min Rain = 0
KCL2 132022Z 19016KT 40/14 A2987 RMK A01 T04030144  RH  022%=      5-min Rain = 0
KCL2 132023Z 20013KT 40/14 A2987 RMK A01 T04000143  RH  022%=      5-min Rain = 0
KCL2 132024Z 20015KT 40/14 A2987 RMK A01 T03990144  RH  022%=      5-min Rain = 0
KCL2 132025Z 20013KT 40/14 A2987 RMK A01 T03990142  RH  022%=      5-min Rain = 0
KCL2 132026Z 19012KT 40/14 A2987 RMK A01 T03990143  RH  022%=      5-min Rain = 0
KCL2 132027Z 20011KT 40/15 A2987 RMK A01 T04000148  RH  023%=      5-min Rain = 0
KCL2 132028Z 21012KT 40/15 A2987 RMK A01 T04030152  RH  023%=      5-min Rain = 0
KCL2 132029Z 21015G20KT 41/15 A2987 RMK A01 T04070153  RH  023%=      5-min Rain = 0
KCL2 132030Z 19013KT 41/15 A2987 RMK A01 T04060150  RH  022%=      5-min Rain = 0
KCL2 132031Z 18014KT 40/15 A2987 RMK A01 T04040151  RH  023%=      5-min Rain = 0
KCL2 132032Z 19012KT 40/15 A2987 RMK A01 T04030152  RH  023%=      5-min Rain = 0
KCL2 132033Z 19014KT 40/15 A2987 RMK A01 T04040153  RH  023%=      5-min Rain = 0
KCL2 132034Z 19014KT 40/14 A2987 RMK A01 T04030144  RH  022%=      5-min Rain = 0
KCL2 132035Z 19015KT 40/14 A2987 RMK A01 T04000144  RH  022%=      5-min Rain = 0
KCL2 132036Z 19015KT 40/14 A2987 RMK A01 T04010142  RH  022%=      5-min Rain = 0
KCL2 132037Z 19012G17KT 40/14 A2987 RMK A01 T04020142  RH  022%=      5-min Rain = 0
KCL2 132038Z 18014KT 40/14 A2987 RMK A01 T04040142  RH  022%=      5-min Rain = 0
KCL2 132039Z 17012KT 40/14 A2987 RMK A01 T04020142  RH  022%=      5-min Rain = 0
KCL2 132040Z 18014KT 40/14 A2987 RMK A01 T04020143  RH  022%=      5-min Rain = 0
KCL2 132041Z 21011KT 40/15 A2986 RMK A01 T04030146  RH  022%=      5-min Rain = 0
KCL2 132042Z 20007KT 40/15 A2987 RMK A01 T04040153  RH  023%=      5-min Rain = 0
KCL2 132043Z 20011KT 41/16 A2986 RMK A01 T04080156  RH  023%=      5-min Rain = 0
KCL2 132044Z 20010KT 41/16 A2987 RMK A01 T04090158  RH  023%=      5-min Rain = 0
KCL2 132045Z 23011KT 41/16 A2986 RMK A01 T04110159  RH  023%=      5-min Rain = 0
KCL2 132046Z 23012KT 41/16 A2986 RMK A01 T04090155  RH  023%=      5-min Rain = 0
KCL2 132047Z 21009KT 41/16 A2986 RMK A01 T04070160  RH  024%=      5-min Rain = 0
KCL2 132048Z 20014G20KT 41/15 A2986 RMK A01 T04070153  RH  023%=      5-min Rain = 0
KCL2 132049Z 21018KT 41/15 A2986 RMK A01 T04050149  RH  022%=      5-min Rain = 0
KCL2 132050Z 22017KT 40/15 A2986 RMK A01 T04030148  RH  022%=      5-min Rain = 0
KCL2 132051Z 22016KT 40/15 A2986 RMK A01 T04020150  RH  023%=      5-min Rain = 0
KCL2 132052Z 22012G17KT 40/15 A2986 RMK A01 T04020147  RH  022%=      5-min Rain = 0
KCL2 132053Z 21014KT 40/15 A2986 RMK A01 T04020147  RH  022%=      5-min Rain = 0
KCL2 132054Z 22010KT 40/15 A2986 RMK A01 T04020150  RH  023%=      5-min Rain = 0
KCL2 132055Z 21013KT 40/15 A2986 RMK A01 T04030149  RH  023%=      5-min Rain = 0
KCL2 132056Z 21013KT 40/15 A2986 RMK A01 T04030145  RH  022%=      5-min Rain = 0
KCL2 132057Z 21010KT 40/15 A2986 RMK A01 T04030153  RH  023%=      5-min Rain = 0
KCL2 132058Z 20013KT 40/15 A2986 RMK A01 T04040148  RH  022%=      5-min Rain = 0
KCL2 132059Z 21012G17KT 41/15 A2986 RMK A01 T04050148  RH  022%=      5-min Rain = 0
KCL2 132100Z 20013KT 41/15 A2986 RMK A01 T04060146  RH  022%=      5-min Rain = 0
KCL2 132101Z 18013KT 41/14 A2986 RMK A01 T04060144  RH  021%=      5-min Rain = 0
KCL2 132102Z 18010G15KT 41/15 A2986 RMK A01 T04050146  RH  022%=      5-min Rain = 0
KCL2 132103Z 18016G21KT 41/15 A2985 RMK A01 T04050146  RH  022%=      5-min Rain = 0
KCL2 132104Z 20015KT 41/15 A2986 RMK A01 T04050150  RH  023%=      5-min Rain = 0
KCL2 132105Z 22016KT 41/15 A2986 RMK A01 T04050149  RH  022%=      5-min Rain = 0
KCL2 132106Z 22012KT 40/15 A2986 RMK A01 T04040151  RH  023%=      5-min Rain = 0
KCL2 132107Z 22012G17KT 41/16 A2986 RMK A01 T04050156  RH  023%=      5-min Rain = 0
KCL2 132108Z 20011KT 41/15 A2986 RMK A01 T04070153  RH  023%=      5-min Rain = 0
KCL2 132109Z 19017KT 41/15 A2986 RMK A01 T04080148  RH  022%=      5-min Rain = 0
KCL2 132110Z 20015G20KT 41/14 A2986 RMK A01 T04050141  RH  021%=      5-min Rain = 0
KCL2 132111Z 20013KT 40/14 A2986 RMK A01 T04040139  RH  021%=      5-min Rain = 0
KCL2 132112Z 20014G19KT 41/14 A2986 RMK A01 T04050140  RH  021%=      5-min Rain = 0
KCL2 132113Z 21014KT 41/14 A2986 RMK A01 T04050138  RH  021%=      5-min Rain = 0
KCL2 132114Z 21014KT 40/14 A2985 RMK A01 T04030140  RH  021%=      5-min Rain = 0
KCL2 132115Z 21018KT 40/14 A2985 RMK A01 T04020140  RH  021%=      5-min Rain = 0
KCL2 132116Z 22016KT 40/14 A2985 RMK A01 T04030135  RH  021%=      5-min Rain = 0
KCL2 132117Z 21012KT 40/14 A2985 RMK A01 T04020141  RH  022%=      5-min Rain = 0
KCL2 132118Z 20012G19KT 40/15 A2985 RMK A01 T04030148  RH  022%=      5-min Rain = 0
KCL2 132119Z 19015KT 41/14 A2985 RMK A01 T04060137  RH  021%=      5-min Rain = 0
KCL2 132120Z 18013KT 41/14 A2985 RMK A01 T04050138  RH  021%=      5-min Rain = 0
KCL2 132121Z 20016G22KT 41/14 A2985 RMK A01 T04050140  RH  021%=      5-min Rain = 0
KCL2 132122Z 18013KT 41/14 A2985 RMK A01 T04050139  RH  021%=      5-min Rain = 0
KCL2 132123Z 19015G20KT 41/14 A2985 RMK A01 T04050144  RH  022%=      5-min Rain = 0
KCL2 132124Z 18016KT 41/14 A2985 RMK A01 T04060142  RH  021%=      5-min Rain = 0
KCL2 132125Z 19014KT 41/15 A2985 RMK A01 T04050145  RH  022%=      5-min Rain = 0
KCL2 132126Z 19015KT 41/14 A2985 RMK A01 T04050142  RH  021%=      5-min Rain = 0
KCL2 132127Z 18014KT 41/15 A2985 RMK A01 T04060145  RH  022%=      5-min Rain = 0
KCL2 132128Z 18016KT 41/14 A2985 RMK A01 T04050139  RH  021%=      5-min Rain = 0
KCL2 132129Z 18011KT 41/14 A2985 RMK A01 T04060142  RH  021%=      5-min Rain = 0
KCL2 132130Z 18016G23KT 41/15 A2985 RMK A01 T04060146  RH  022%=      5-min Rain = 0
KCL2 132131Z 19012KT 41/15 A2985 RMK A01 T04070145  RH  021%=      5-min Rain = 0
KCL2 132132Z 20014G19KT 41/15 A2985 RMK A01 T04080146  RH  022%=      5-min Rain = 0
KCL2 132133Z 21015G20KT 41/14 A2985 RMK A01 T04070144  RH  021%=      5-min Rain = 0
KCL2 132134Z 22010KT 41/15 A2985 RMK A01 T04060146  RH  022%=      5-min Rain = 0
KCL2 132135Z 21011G16KT 41/15 A2985 RMK A01 T04050145  RH  022%=      5-min Rain = 0
KCL2 132136Z 18010KT 41/15 A2985 RMK A01 T04060149  RH  022%=      5-min Rain = 0
KCL2 132137Z 20013G18KT 41/15 A2985 RMK A01 T04100151  RH  022%=      5-min Rain = 0
KCL2 132138Z 19013KT 41/14 A2985 RMK A01 T04100144  RH  021%=      5-min Rain = 0
KCL2 132139Z 19014G19KT 41/14 A2985 RMK A01 T04080143  RH  021%=      5-min Rain = 0
KCL2 132140Z 21014KT 41/14 A2985 RMK A01 T04070144  RH  021%=      5-min Rain = 0
KCL2 132141Z 21014KT 41/14 A2985 RMK A01 T04070142  RH  021%=      5-min Rain = 0
KCL2 132142Z 18015G20KT 41/14 A2985 RMK A01 T04080142  RH  021%=      5-min Rain = 0
KCL2 132143Z 19017KT 41/14 A2985 RMK A01 T04070135  RH  020%=      5-min Rain = 0
KCL2 132144Z 19016KT 41/14 A2985 RMK A01 T04060141  RH  021%=      5-min Rain = 0
KCL2 132145Z 19014G20KT 41/14 A2985 RMK A01 T04060141  RH  021%=      5-min Rain = 0
KCL2 132146Z 21012KT 41/15 A2985 RMK A01 T04070146  RH  022%=      5-min Rain = 0
KCL2 132147Z 20011KT 41/15 A2985 RMK A01 T04080145  RH  021%=      5-min Rain = 0
KCL2 132148Z 19011KT 41/14 A2985 RMK A01 T04090142  RH  021%=      5-min Rain = 0
KCL2 132149Z 20010KT 41/14 A2985 RMK A01 T04090144  RH  021%=      5-min Rain = 0
KCL2 132150Z 20012G21KT 41/15 A2985 RMK A01 T04100154  RH  022%=      5-min Rain = 0
KCL2 132151Z 19017KT 41/14 A2984 RMK A01 T04120141  RH  020%=      5-min Rain = 0
KCL2 132152Z 19017KT 41/14 A2984 RMK A01 T04100136  RH  020%=      5-min Rain = 0
KCL2 132153Z 19016KT 41/14 A2985 RMK A01 T04070135  RH  020%=      5-min Rain = 0
KCL2 132154Z 19015KT 41/14 A2985 RMK A01 T04060137  RH  021%=      5-min Rain = 0
KCL2 132155Z 19013G20KT 41/14 A2984 RMK A01 T04060137  RH  021%=      5-min Rain = 0
KCL2 132156Z 19013KT 41/13 A2984 RMK A01 T04060131  RH  020%=      5-min Rain = 0
KCL2 132157Z 19014KT 41/14 A2984 RMK A01 T04050136  RH  021%=      5-min Rain = 0
KCL2 132158Z 20012KT 41/14 A2984 RMK A01 T04050140  RH  021%=      5-min Rain = 0
KCL2 132159Z 20014KT 41/14 A2984 RMK A01 T04070140  RH  021%=      5-min Rain = 0
KCL2 132200Z 20012KT 41/14 A2984 RMK A01 T04080136  RH  020%=      5-min Rain = 0
KCL2 132201Z 19017KT 41/13 A2984 RMK A01 T04060134  RH  020%=      5-min Rain = 0
KCL2 132202Z 20016KT 40/13 A2984 RMK A01 T04030133  RH  020%=      5-min Rain = 0
KCL2 132203Z 21014G19KT 40/14 A2984 RMK A01 T04020136  RH  021%=      5-min Rain = 0
KCL2 132204Z 21016KT 40/13 A2984 RMK A01 T04000132  RH  021%=      5-min Rain = 0
KCL2 132205Z 20014KT 40/13 A2984 RMK A01 T03970133  RH  021%=      5-min Rain = 0
KCL2 132206Z 21014KT 40/13 A2984 RMK A01 T03960131  RH  021%=      5-min Rain = 0
KCL2 132207Z 19013KT 40/13 A2984 RMK A01 T03960128  RH  020%=      5-min Rain = 0
KCL2 132208Z 20013KT 40/13 A2984 RMK A01 T03970130  RH  021%=      5-min Rain = 0
KCL2 132209Z 20012KT 40/13 A2984 RMK A01 T03970128  RH  020%=      5-min Rain = 0
KCL2 132210Z 19011KT 40/13 A2984 RMK A01 T03980131  RH  021%=      5-min Rain = 0
KCL2 132211Z 20012KT 40/13 A2984 RMK A01 T03980130  RH  020%=      5-min Rain = 0
KCL2 132212Z 20011KT 40/13 A2984 RMK A01 T03980132  RH  021%=      5-min Rain = 0
KCL2 132213Z 20010KT 40/13 A2984 RMK A01 T03990134  RH  021%=      5-min Rain = 0
KCL2 132214Z 19011KT 40/13 A2984 RMK A01 T03990132  RH  021%=      5-min Rain = 0
KCL2 132215Z 19014KT 40/13 A2984 RMK A01 T03990126  RH  020%=      5-min Rain = 0
KCL2 132216Z 19011KT 40/12 A2984 RMK A01 T03990124  RH  020%=      5-min Rain = 0
KCL2 132217Z 19013KT 40/13 A2984 RMK A01 T03980125  RH  020%=      5-min Rain = 0
KCL2 132218Z 19012KT 40/12 A2984 RMK A01 T03970123  RH  020%=      5-min Rain = 0
KCL2 132219Z 19014KT 40/12 A2984 RMK A01 T03970121  RH  019%=      5-min Rain = 0
KCL2 132220Z 19013KT 40/12 A2984 RMK A01 T03970119  RH  019%=      5-min Rain = 0
KCL2 132221Z 19010KT 40/12 A2984 RMK A01 T03980122  RH  019%=      5-min Rain = 0
KCL2 132222Z 20012KT 40/12 A2984 RMK A01 T03990122  RH  019%=      5-min Rain = 0
KCL2 132223Z 19013KT 40/12 A2984 RMK A01 T03990123  RH  019%=      5-min Rain = 0
KCL2 132224Z 18012KT 40/13 A2984 RMK A01 T04010125  RH  019%=      5-min Rain = 0
KCL2 132225Z 19011KT 40/13 A2984 RMK A01 T04030127  RH  020%=      5-min Rain = 0
KCL2 132226Z 20013G18KT 40/13 A2984 RMK A01 T04030127  RH  020%=      5-min Rain = 0
KCL2 132227Z 20014KT 40/13 A2984 RMK A01 T04010126  RH  020%=      5-min Rain = 0
KCL2 132228Z 19014KT 40/12 A2984 RMK A01 T03990123  RH  020%=      5-min Rain = 0
KCL2 132229Z 20012KT 40/13 A2984 RMK A01 T03970125  RH  020%=      5-min Rain = 0
KCL2 132230Z 19013KT 40/13 A2984 RMK A01 T03960128  RH  020%=      5-min Rain = 0
KCL2 132231Z 20014KT 40/13 A2984 RMK A01 T03960128  RH  020%=      5-min Rain = 0
KCL2 132232Z 19010KT 40/13 A2984 RMK A01 T03960131  RH  021%=      5-min Rain = 0
KCL2 132233Z 19010G15KT 40/14 A2983 RMK A01 T03950136  RH  022%=      5-min Rain = 0
KCL2 132234Z 20011KT 40/13 A2983 RMK A01 T03950133  RH  021%=      5-min Rain = 0
KCL2 132235Z 20011KT 40/13 A2983 RMK A01 T03950132  RH  021%=      5-min Rain = 0
KCL2 132236Z 19010KT 39/13 A2983 RMK A01 T03940131  RH  021%=      5-min Rain = 0
KCL2 132237Z 19011KT 39/13 A2983 RMK A01 T03940131  RH  021%=      5-min Rain = 0
KCL2 132238Z 19014KT 39/13 A2983 RMK A01 T03940132  RH  021%=      5-min Rain = 0
KCL2 132239Z 19013KT 39/13 A2983 RMK A01 T03940132  RH  021%=      5-min Rain = 0
KCL2 132240Z 19012KT 39/13 A2983 RMK A01 T03940131  RH  021%=      5-min Rain = 0
KCL2 132241Z 20010KT 39/13 A2983 RMK A01 T03940134  RH  022%=      5-min Rain = 0
KCL2 132242Z 19010KT 39/14 A2983 RMK A01 T03940136  RH  022%=      5-min Rain = 0
KCL2 132243Z 20010KT 39/13 A2983 RMK A01 T03940134  RH  022%=      5-min Rain = 0
KCL2 132244Z 20009KT 39/14 A2983 RMK A01 T03940136  RH  022%=      5-min Rain = 0
KCL2 132245Z 20010KT 39/14 A2983 RMK A01 T03940138  RH  022%=      5-min Rain = 0
KCL2 132246Z 20012KT 40/14 A2983 RMK A01 T03970138  RH  022%=      5-min Rain = 0
KCL2 132247Z 19010KT 40/14 A2983 RMK A01 T03990137  RH  021%=      5-min Rain = 0
KCL2 132248Z 19009KT 40/14 A2983 RMK A01 T03990139  RH  022%=      5-min Rain = 0
KCL2 132249Z 19012KT 40/13 A2983 RMK A01 T03990134  RH  021%=      5-min Rain = 0
KCL2 132250Z 20012KT 40/13 A2983 RMK A01 T03990130  RH  020%=      5-min Rain = 0
KCL2 132251Z 19012KT 40/13 A2983 RMK A01 T04000129  RH  020%=      5-min Rain = 0
KCL2 132252Z 19011KT 40/12 A2983 RMK A01 T04000122  RH  019%=      5-min Rain = 0
KCL2 132253Z 19012KT 40/12 A2983 RMK A01 T04010124  RH  019%=      5-min Rain = 0
KCL2 132254Z 18011KT 40/13 A2983 RMK A01 T04010128  RH  020%=      5-min Rain = 0
KCL2 132255Z 19011KT 40/13 A2983 RMK A01 T04000125  RH  020%=      5-min Rain = 0
KCL2 132256Z 18012G17KT 40/13 A2983 RMK A01 T03990126  RH  020%=      5-min Rain = 0
KCL2 132257Z 18013KT 40/12 A2983 RMK A01 T03990124  RH  020%=      5-min Rain = 0
KCL2 132258Z 19010KT 40/13 A2983 RMK A01 T04000125  RH  020%=      5-min Rain = 0
KCL2 132259Z 19013KT 40/13 A2983 RMK A01 T04000126  RH  020%=      5-min Rain = 0
KCL2 132300Z 19011G16KT 40/13 A2983 RMK A01 T04000127  RH  020%=      5-min Rain = 0
KCL2 132301Z 19012KT 40/13 A2983 RMK A01 T04000126  RH  020%=      5-min Rain = 0
KCL2 132302Z 18011KT 40/13 A2983 RMK A01 T04010129  RH  020%=      5-min Rain = 0
KCL2 132303Z 19008KT 40/13 A2982 RMK A01 T04020134  RH  021%=      5-min Rain = 0
KCL2 132304Z 19011KT 40/13 A2982 RMK A01 T04020133  RH  020%=      5-min Rain = 0
KCL2 132305Z 19012KT 40/13 A2982 RMK A01 T04020131  RH  020%=      5-min Rain = 0
KCL2 132306Z 19010KT 40/13 A2982 RMK A01 T04000127  RH  020%=      5-min Rain = 0
KCL2 132307Z 19013KT 40/12 A2982 RMK A01 T03970124  RH  020%=      5-min Rain = 0
KCL2 132308Z 19014KT 40/12 A2982 RMK A01 T03960124  RH  020%=      5-min Rain = 0
KCL2 132309Z 18011KT 40/13 A2982 RMK A01 T03960126  RH  020%=      5-min Rain = 0
KCL2 132310Z 19012KT 40/13 A2982 RMK A01 T03970125  RH  020%=      5-min Rain = 0
KCL2 132311Z 19013KT 40/12 A2982 RMK A01 T03980122  RH  019%=      5-min Rain = 0
KCL2 132312Z 18011KT 40/12 A2982 RMK A01 T04000122  RH  019%=      5-min Rain = 0
KCL2 132313Z 17011KT 40/12 A2982 RMK A01 T04010123  RH  019%=      5-min Rain = 0
KCL2 132314Z 18011KT 40/12 A2982 RMK A01 T04020121  RH  019%=      5-min Rain = 0
KCL2 132315Z 18013KT 40/12 A2982 RMK A01 T04020119  RH  019%=      5-min Rain = 0
KCL2 132316Z 18013KT 40/12 A2982 RMK A01 T04020118  RH  018%=      5-min Rain = 0
KCL2 132317Z 18012KT 40/12 A2982 RMK A01 T04020117  RH  018%=      5-min Rain = 0
KCL2 132318Z 18012KT 40/12 A2982 RMK A01 T04020118  RH  019%=      5-min Rain = 0
KCL2 132319Z 18010KT 40/12 A2982 RMK A01 T04020121  RH  019%=      5-min Rain = 0
KCL2 132320Z 19011KT 40/13 A2982 RMK A01 T04020125  RH  020%=      5-min Rain = 0
KCL2 132321Z 20011KT 40/12 A2982 RMK A01 T04010123  RH  019%=      5-min Rain = 0
KCL2 132322Z 20013KT 40/12 A2982 RMK A01 T04010124  RH  019%=      5-min Rain = 0
KCL2 132323Z 19008KT 40/13 A2982 RMK A01 T04010128  RH  020%=      5-min Rain = 0
KCL2 132324Z 19011KT 40/13 A2982 RMK A01 T04010131  RH  020%=      5-min Rain = 0
KCL2 132325Z 20010KT 40/12 A2982 RMK A01 T04020124  RH  019%=      5-min Rain = 0
KCL2 132326Z 19009KT 40/12 A2982 RMK A01 T04020124  RH  019%=      5-min Rain = 0
KCL2 132327Z 19010KT 40/13 A2982 RMK A01 T04020127  RH  020%=      5-min Rain = 0
KCL2 132328Z 20010KT 40/13 A2982 RMK A01 T04020125  RH  019%=      5-min Rain = 0
KCL2 132329Z 19009KT 40/13 A2982 RMK A01 T04020128  RH  020%=      5-min Rain = 0
KCL2 132330Z 20010KT 40/12 A2982 RMK A01 T04020123  RH  019%=      5-min Rain = 0
KCL2 132331Z 20009KT 40/12 A2982 RMK A01 T04020120  RH  019%=      5-min Rain = 0
KCL2 132332Z 19007KT 40/13 A2982 RMK A01 T04020127  RH  020%=      5-min Rain = 0
KCL2 132333Z 18009KT 40/13 A2982 RMK A01 T04020130  RH  020%=      5-min Rain = 0
KCL2 132334Z 19009G15KT 40/13 A2982 RMK A01 T04020129  RH  020%=      5-min Rain = 0
KCL2 132335Z 20012KT 40/12 A2982 RMK A01 T04030116  RH  018%=      5-min Rain = 0
KCL2 132336Z 19010KT 40/12 A2982 RMK A01 T04020119  RH  019%=      5-min Rain = 0
KCL2 132337Z 19010KT 40/12 A2982 RMK A01 T04010120  RH  019%=      5-min Rain = 0
KCL2 132338Z 18008KT 40/12 A2982 RMK A01 T04000119  RH  019%=      5-min Rain = 0
KCL2 132339Z 19009KT 40/12 A2982 RMK A01 T04010121  RH  019%=      5-min Rain = 0
KCL2 132340Z 18011KT 40/12 A2982 RMK A01 T04000119  RH  019%=      5-min Rain = 0
KCL2 132341Z 18011KT 40/12 A2982 RMK A01 T04000118  RH  019%=      5-min Rain = 0
KCL2 132342Z 18009KT 40/12 A2982 RMK A01 T04000122  RH  019%=      5-min Rain = 0
KCL2 132343Z 19010G15KT 40/12 A2982 RMK A01 T04000122  RH  019%=      5-min Rain = 0
KCL2 132344Z 19010KT 40/12 A2982 RMK A01 T04000116  RH  019%=      5-min Rain = 0
KCL2 132345Z 19010KT 40/12 A2982 RMK A01 T03990116  RH  019%=      5-min Rain = 0
KCL2 132346Z 18009KT 40/12 A2982 RMK A01 T03990123  RH  020%=      5-min Rain = 0
KCL2 132347Z 19010KT 40/12 A2982 RMK A01 T03990117  RH  019%=      5-min Rain = 0
KCL2 132348Z 18011KT 40/12 A2982 RMK A01 T03990116  RH  019%=      5-min Rain = 0
KCL2 132349Z 19011KT 40/12 A2982 RMK A01 T03980115  RH  019%=      5-min Rain = 0
KCL2 132350Z 19010KT 40/11 A2982 RMK A01 T03960114  RH  019%=      5-min Rain = 0
KCL2 132351Z 19009KT 39/12 A2982 RMK A01 T03940115  RH  019%=      5-min Rain = 0
KCL2 132352Z 18011KT 39/11 A2982 RMK A01 T03930114  RH  019%=      5-min Rain = 0
KCL2 132353Z 18008KT 39/12 A2982 RMK A01 T03930118  RH  019%=      5-min Rain = 0
KCL2 132354Z 18010KT 39/12 A2982 RMK A01 T03930118  RH  019%=      5-min Rain = 0
KCL2 132355Z 19009KT 39/12 A2982 RMK A01 T03940116  RH  019%=      5-min Rain = 0
KCL2 132356Z 19011KT 39/12 A2982 RMK A01 T03940115  RH  019%=      5-min Rain = 0
KCL2 132357Z 19009KT 40/12 A2982 RMK A01 T03950117  RH  019%=      5-min Rain = 0
KCL2 132358Z 18009KT 40/12 A2982 RMK A01 T03950123  RH  020%=      5-min Rain = 0
KCL2 132359Z 18011KT 40/12 A2982 RMK A01 T03950120  RH  020%=      5-min Rain = 0
KCL2 140000Z 19009KT 40/12 A2982 RMK A01 T03950117  RH  019%=      5-min Rain = 0
KCL2 140001Z 19008KT 40/12 A2982 RMK A01 T03950120  RH  019%=      5-min Rain = 0
KCL2 140002Z 19007KT 39/12 A2982 RMK A01 T03940124  RH  020%=      5-min Rain = 0
KCL2 140003Z 18009KT 39/12 A2982 RMK A01 T03930123  RH  020%=      5-min Rain = 0
KCL2 140004Z 18011KT 39/12 A2982 RMK A01 T03930123  RH  020%=      5-min Rain = 0
KCL2 140005Z 19008KT 39/12 A2982 RMK A01 T03930122  RH  020%=      5-min Rain = 0
KCL2 140006Z 18006KT 39/13 A2982 RMK A01 T03920126  RH  021%=      5-min Rain = 0
KCL2 140007Z 19010KT 39/13 A2982 RMK A01 T03910127  RH  021%=      5-min Rain = 0
KCL2 140008Z 18011KT 39/12 A2982 RMK A01 T03920120  RH  020%=      5-min Rain = 0
KCL2 140009Z 19010KT 39/12 A2982 RMK A01 T03910119  RH  020%=      5-min Rain = 0
KCL2 140010Z 19009KT 39/12 A2982 RMK A01 T03910120  RH  020%=      5-min Rain = 0
KCL2 140011Z 19009KT 39/12 A2982 RMK A01 T03900122  RH  020%=      5-min Rain = 0
KCL2 140012Z 19008KT 39/13 A2982 RMK A01 T03890125  RH  021%=      5-min Rain = 0
KCL2 140013Z 19010KT 39/12 A2982 RMK A01 T03880120  RH  020%=      5-min Rain = 0
KCL2 140014Z 19009KT 39/12 A2982 RMK A01 T03870115  RH  020%=      5-min Rain = 0
KCL2 140015Z 19009KT 39/12 A2982 RMK A01 T03880117  RH  020%=      5-min Rain = 0
KCL2 140016Z 19009G14KT 39/12 A2982 RMK A01 T03880120  RH  020%=      5-min Rain = 0
KCL2 140017Z 19009KT 39/12 A2982 RMK A01 T03870119  RH  020%=      5-min Rain = 0
KCL2 140018Z 19009KT 39/12 A2982 RMK A01 T03860120  RH  020%=      5-min Rain = 0
KCL2 140019Z 19009KT 39/12 A2982 RMK A01 T03860119  RH  020%=      5-min Rain = 0
KCL2 140020Z 19008KT 39/12 A2982 RMK A01 T03850120  RH  021%=      5-min Rain = 0
KCL2 140021Z 19008KT 39/12 A2982 RMK A01 T03850122  RH  021%=      5-min Rain = 0
KCL2 140022Z 19006KT 38/12 A2982 RMK A01 T03840122  RH  021%=      5-min Rain = 0
KCL2 140023Z 19008KT 38/12 A2982 RMK A01 T03840124  RH  021%=      5-min Rain = 0
KCL2 140024Z 18008KT 38/12 A2982 RMK A01 T03830121  RH  021%=      5-min Rain = 0
KCL2 140025Z 20008KT 38/12 A2982 RMK A01 T03830120  RH  021%=      5-min Rain = 0
KCL2 140026Z 19007KT 38/12 A2982 RMK A01 T03830123  RH  021%=      5-min Rain = 0
KCL2 140027Z 19008KT 38/12 A2982 RMK A01 T03820122  RH  021%=      5-min Rain = 0
KCL2 140028Z 19008KT 38/12 A2982 RMK A01 T03820121  RH  021%=      5-min Rain = 0
KCL2 140029Z 18007KT 38/12 A2982 RMK A01 T03810123  RH  021%=      5-min Rain = 0
KCL2 140030Z 18007KT 38/12 A2982 RMK A01 T03800124  RH  022%=      5-min Rain = 0
KCL2 140031Z 19007KT 38/13 A2982 RMK A01 T03790126  RH  022%=      5-min Rain = 0
KCL2 140032Z 19008KT 38/12 A2982 RMK A01 T03770124  RH  022%=      5-min Rain = 0
KCL2 140033Z 19007KT 38/12 A2982 RMK A01 T03770124  RH  022%=      5-min Rain = 0
KCL2 140034Z 19007KT 38/12 A2982 RMK A01 T03760121  RH  022%=      5-min Rain = 0
KCL2 140035Z 19008KT 38/12 A2982 RMK A01 T03760124  RH  022%=      5-min Rain = 0
KCL2 140036Z 18008KT 38/12 A2982 RMK A01 T03750124  RH  022%=      5-min Rain = 0
KCL2 140037Z 18007KT 37/12 A2982 RMK A01 T03740123  RH  022%=      5-min Rain = 0
KCL2 140038Z 18007KT 37/12 A2982 RMK A01 T03740122  RH  022%=      5-min Rain = 0
KCL2 140039Z 18007KT 37/12 A2982 RMK A01 T03730124  RH  022%=      5-min Rain = 0
KCL2 140040Z 19006KT 37/13 A2982 RMK A01 T03730126  RH  023%=      5-min Rain = 0
KCL2 140041Z 18007KT 37/12 A2982 RMK A01 T03720124  RH  023%=      5-min Rain = 0
KCL2 140042Z 18007KT 37/12 A2982 RMK A01 T03710124  RH  023%=      5-min Rain = 0
KCL2 140043Z 18007KT 37/12 A2982 RMK A01 T03710122  RH  023%=      5-min Rain = 0
KCL2 140044Z 18007KT 37/12 A2982 RMK A01 T03710121  RH  022%=      5-min Rain = 0
KCL2 140045Z 18008KT 37/12 A2982 RMK A01 T03700122  RH  023%=      5-min Rain = 0
KCL2 140046Z 18007KT 37/12 A2982 RMK A01 T03710119  RH  022%=      5-min Rain = 0
KCL2 140047Z 18006KT 37/12 A2982 RMK A01 T03720121  RH  022%=      5-min Rain = 0
KCL2 140048Z 18007KT 37/12 A2982 RMK A01 T03710122  RH  022%=      5-min Rain = 0
KCL2 140049Z 18007KT 37/12 A2982 RMK A01 T03700121  RH  022%=      5-min Rain = 0
KCL2 140050Z 18006KT 37/12 A2982 RMK A01 T03700123  RH  023%=      5-min Rain = 0
KCL2 140051Z 18006KT 37/13 A2982 RMK A01 T03680125  RH  023%=      5-min Rain = 0
KCL2 140052Z 18006KT 37/13 A2982 RMK A01 T03660125  RH  023%=      5-min Rain = 0
KCL2 140053Z 18006KT 37/12 A2982 RMK A01 T03650124  RH  024%=      5-min Rain = 0
KCL2 140054Z 18006KT 36/12 A2982 RMK A01 T03630123  RH  024%=      5-min Rain = 0
KCL2 140055Z 18007KT 36/12 A2982 RMK A01 T03630123  RH  024%=      5-min Rain = 0
KCL2 140056Z 18007KT 36/12 A2982 RMK A01 T03630121  RH  023%=      5-min Rain = 0
KCL2 140057Z 18006KT 36/12 A2982 RMK A01 T03630122  RH  024%=      5-min Rain = 0
KCL2 140058Z 18006KT 36/12 A2982 RMK A01 T03620121  RH  023%=      5-min Rain = 0
KCL2 140059Z 18006KT 36/12 A2982 RMK A01 T03620123  RH  024%=      5-min Rain = 0
KCL2 140100Z 18006KT 36/12 A2982 RMK A01 T03610121  RH  024%=      5-min Rain = 0
KCL2 140101Z 18006KT 36/12 A2982 RMK A01 T03610121  RH  024%=      5-min Rain = 0
KCL2 140102Z 17006KT 36/12 A2982 RMK A01 T03610122  RH  024%=      5-min Rain = 0
KCL2 140103Z 17006KT 36/12 A2982 RMK A01 T03600124  RH  024%=      5-min Rain = 0
KCL2 140104Z 17006KT 36/12 A2982 RMK A01 T03590123  RH  024%=      5-min Rain = 0
KCL2 140105Z 17006KT 36/12 A2982 RMK A01 T03590123  RH  024%=      5-min Rain = 0
KCL2 140106Z 17006KT 36/12 A2982 RMK A01 T03580123  RH  024%=      5-min Rain = 0
KCL2 140107Z 17006KT 36/13 A2982 RMK A01 T03570125  RH  025%=      5-min Rain = 0
KCL2 140108Z 17006KT 36/13 A2982 RMK A01 T03560126  RH  025%=      5-min Rain = 0
KCL2 140109Z 17007KT 36/13 A2982 RMK A01 T03550126  RH  025%=      5-min Rain = 0
KCL2 140110Z 17006KT 35/13 A2982 RMK A01 T03540126  RH  025%=      5-min Rain = 0
KCL2 140111Z 17007KT 35/13 A2982 RMK A01 T03530125  RH  025%=      5-min Rain = 0
KCL2 140112Z 17007KT 35/12 A2982 RMK A01 T03530124  RH  025%=      5-min Rain = 0
KCL2 140113Z 17007KT 35/13 A2982 RMK A01 T03540125  RH  025%=      5-min Rain = 0
KCL2 140114Z 17007KT 35/13 A2982 RMK A01 T03540126  RH  025%=      5-min Rain = 0
KCL2 140115Z 17007KT 35/13 A2982 RMK A01 T03540127  RH  025%=      5-min Rain = 0
KCL2 140116Z 17006KT 35/13 A2982 RMK A01 T03530127  RH  026%=      5-min Rain = 0
KCL2 140117Z 16007KT 35/13 A2981 RMK A01 T03520126  RH  026%=      5-min Rain = 0
KCL2 140118Z 16006KT 35/13 A2981 RMK A01 T03520127  RH  026%=      5-min Rain = 0
KCL2 140119Z 16007KT 35/13 A2981 RMK A01 T03520127  RH  026%=      5-min Rain = 0
KCL2 140120Z 17006KT 35/13 A2981 RMK A01 T03520128  RH  026%=      5-min Rain = 0
KCL2 140121Z 16006KT 35/13 A2982 RMK A01 T03520128  RH  026%=      5-min Rain = 0
KCL2 140122Z 17007KT 35/13 A2981 RMK A01 T03520128  RH  026%=      5-min Rain = 0
KCL2 140123Z 17007KT 35/13 A2981 RMK A01 T03520126  RH  026%=      5-min Rain = 0
KCL2 140124Z 17007KT 35/13 A2982 RMK A01 T03520128  RH  026%=      5-min Rain = 0
KCL2 140125Z 17007KT 35/13 A2982 RMK A01 T03510127  RH  026%=      5-min Rain = 0
KCL2 140126Z 17007KT 35/13 A2981 RMK A01 T03510127  RH  026%=      5-min Rain = 0
KCL2 140127Z 17007KT 35/13 A2981 RMK A01 T03500128  RH  026%=      5-min Rain = 0
KCL2 140128Z 17007KT 35/13 A2981 RMK A01 T03490128  RH  026%=      5-min Rain = 0
KCL2 140129Z 17007KT 35/13 A2981 RMK A01 T03480128  RH  026%=      5-min Rain = 0
KCL2 140130Z 17007KT 35/13 A2981 RMK A01 T03480127  RH  026%=      5-min Rain = 0
KCL2 140131Z 17006KT 35/13 A2981 RMK A01 T03480128  RH  027%=      5-min Rain = 0
KCL2 140132Z 17007KT 35/13 A2981 RMK A01 T03470128  RH  027%=      5-min Rain = 0
KCL2 140133Z 17007KT 35/13 A2981 RMK A01 T03460129  RH  027%=      5-min Rain = 0
KCL2 140134Z 17007KT 35/13 A2981 RMK A01 T03450129  RH  027%=      5-min Rain = 0
KCL2 140135Z 18006KT 34/13 A2982 RMK A01 T03440129  RH  027%=      5-min Rain = 0
KCL2 140136Z 17006KT 34/13 A2981 RMK A01 T03430129  RH  027%=      5-min Rain = 0
KCL2 140137Z 17006KT 34/13 A2981 RMK A01 T03430129  RH  028%=      5-min Rain = 0
KCL2 140138Z 18006KT 34/13 A2981 RMK A01 T03420130  RH  028%=      5-min Rain = 0
KCL2 140139Z 17007KT 34/13 A2981 RMK A01 T03410130  RH  028%=      5-min Rain = 0
KCL2 140140Z 17007KT 34/13 A2981 RMK A01 T03400130  RH  028%=      5-min Rain = 0
KCL2 140141Z 17007KT 34/13 A2981 RMK A01 T03390130  RH  028%=      5-min Rain = 0
KCL2 140142Z 17006KT 34/13 A2981 RMK A01 T03390130  RH  028%=      5-min Rain = 0
KCL2 140143Z 17006KT 34/13 A2981 RMK A01 T03380130  RH  028%=      5-min Rain = 0
KCL2 140144Z 18007KT 34/13 A2981 RMK A01 T03380130  RH  028%=      5-min Rain = 0
KCL2 140145Z 18007KT 34/13 A2981 RMK A01 T03370130  RH  029%=      5-min Rain = 0
KCL2 140146Z 18007KT 34/13 A2981 RMK A01 T03370129  RH  028%=      5-min Rain = 0
KCL2 140147Z 18007KT 34/13 A2981 RMK A01 T03370129  RH  028%=      5-min Rain = 0
KCL2 140148Z 18007KT 34/13 A2981 RMK A01 T03370130  RH  029%=      5-min Rain = 0
KCL2 140149Z 18006KT 34/13 A2981 RMK A01 T03370130  RH  029%=      5-min Rain = 0
KCL2 140150Z 17006KT 34/13 A2981 RMK A01 T03360129  RH  029%=      5-min Rain = 0
KCL2 140151Z 18006KT 34/13 A2981 RMK A01 T03360129  RH  028%=      5-min Rain = 0
KCL2 140152Z 18007KT 34/13 A2981 RMK A01 T03360129  RH  029%=      5-min Rain = 0
KCL2 140153Z 18007KT 34/13 A2981 RMK A01 T03350129  RH  029%=      5-min Rain = 0
KCL2 140154Z 17006KT 34/13 A2981 RMK A01 T03350129  RH  029%=      5-min Rain = 0
KCL2 140155Z 18007KT 34/13 A2981 RMK A01 T03350129  RH  029%=      5-min Rain = 0
KCL2 140156Z 17007KT 34/13 A2981 RMK A01 T03350128  RH  028%=      5-min Rain = 0
KCL2 140157Z 18007KT 34/13 A2981 RMK A01 T03360127  RH  028%=      5-min Rain = 0
KCL2 140158Z 17007KT 34/13 A2981 RMK A01 T03360127  RH  028%=      5-min Rain = 0
KCL2 140159Z 17007KT 34/13 A2981 RMK A01 T03360128  RH  028%=      5-min Rain = 0
KCL2 140200Z 17007KT 34/13 A2981 RMK A01 T03360128  RH  028%=      5-min Rain = 0
KCL2 140201Z 17007KT 34/13 A2981 RMK A01 T03350129  RH  029%=      5-min Rain = 0
KCL2 140202Z 17008KT 33/13 A2981 RMK A01 T03340129  RH  029%=      5-min Rain = 0
KCL2 140203Z 16008KT 33/13 A2982 RMK A01 T03340128  RH  029%=      5-min Rain = 0
KCL2 140204Z 16008KT 34/13 A2982 RMK A01 T03360129  RH  029%=      5-min Rain = 0
KCL2 140205Z 16007KT 34/13 A2982 RMK A01 T03360130  RH  029%=      5-min Rain = 0
KCL2 140206Z 16007KT 34/13 A2982 RMK A01 T03360130  RH  029%=      5-min Rain = 0
KCL2 140207Z 16007KT 34/13 A2982 RMK A01 T03360131  RH  029%=      5-min Rain = 0
KCL2 140208Z 16006KT 34/13 A2982 RMK A01 T03350132  RH  029%=      5-min Rain = 0
KCL2 140209Z 16008KT 33/13 A2982 RMK A01 T03340132  RH  029%=      5-min Rain = 0
KCL2 140210Z 17007KT 33/13 A2982 RMK A01 T03340132  RH  029%=      5-min Rain = 0
KCL2 140211Z 17008KT 33/13 A2982 RMK A01 T03340131  RH  029%=      5-min Rain = 0
KCL2 140212Z 17007KT 34/13 A2982 RMK A01 T03350131  RH  029%=      5-min Rain = 0
KCL2 140213Z 16008KT 34/13 A2982 RMK A01 T03350130  RH  029%=      5-min Rain = 0
KCL2 140214Z 16008KT 34/13 A2982 RMK A01 T03350129  RH  029%=      5-min Rain = 0
KCL2 140215Z 16008KT 34/13 A2982 RMK A01 T03360130  RH  029%=      5-min Rain = 0
KCL2 140216Z 16007KT 34/13 A2982 RMK A01 T03350131  RH  029%=      5-min Rain = 0
KCL2 140217Z 16007KT 33/13 A2982 RMK A01 T03340130  RH  029%=      5-min Rain = 0
KCL2 140218Z 17007KT 33/13 A2982 RMK A01 T03340131  RH  029%=      5-min Rain = 0
KCL2 140219Z 16007KT 33/13 A2982 RMK A01 T03330131  RH  029%=      5-min Rain = 0
KCL2 140220Z 17008KT 33/13 A2982 RMK A01 T03320132  RH  030%=      5-min Rain = 0
KCL2 140221Z 17008KT 33/13 A2982 RMK A01 T03320132  RH  030%=      5-min Rain = 0
KCL2 140222Z 16007KT 33/13 A2982 RMK A01 T03310132  RH  030%=      5-min Rain = 0
KCL2 140223Z 16008KT 33/13 A2982 RMK A01 T03310131  RH  030%=      5-min Rain = 0
KCL2 140224Z 16008KT 33/13 A2982 RMK A01 T03310132  RH  030%=      5-min Rain = 0
KCL2 140225Z 16007KT 33/13 A2982 RMK A01 T03310132  RH  030%=      5-min Rain = 0
KCL2 140226Z 16007KT 33/13 A2982 RMK A01 T03300132  RH  030%=      5-min Rain = 0
KCL2 140227Z 16008KT 33/13 A2982 RMK A01 T03290132  RH  030%=      5-min Rain = 0
KCL2 140228Z 16007KT 33/13 A2982 RMK A01 T03280131  RH  030%=      5-min Rain = 0
KCL2 140229Z 16007KT 33/13 A2982 RMK A01 T03290131  RH  030%=      5-min Rain = 0
KCL2 140230Z 17007KT 33/13 A2982 RMK A01 T03280132  RH  030%=      5-min Rain = 0
KCL2 140231Z 16007KT 33/13 A2982 RMK A01 T03280132  RH  030%=      5-min Rain = 0
KCL2 140232Z 16007KT 33/13 A2983 RMK A01 T03270132  RH  031%=      5-min Rain = 0
KCL2 140233Z 16007KT 33/13 A2983 RMK A01 T03260132  RH  031%=      5-min Rain = 0
KCL2 140234Z 16007KT 33/13 A2983 RMK A01 T03250132  RH  031%=      5-min Rain = 0
KCL2 140235Z 16006KT 32/13 A2983 RMK A01 T03240132  RH  031%=      5-min Rain = 0
KCL2 140236Z 16007KT 32/13 A2983 RMK A01 T03230133  RH  032%=      5-min Rain = 0
KCL2 140237Z 16007KT 32/13 A2983 RMK A01 T03210133  RH  032%=      5-min Rain = 0
KCL2 140238Z 16007KT 32/13 A2983 RMK A01 T03200133  RH  032%=      5-min Rain = 0
KCL2 140239Z 16006KT 32/13 A2983 RMK A01 T03200133  RH  032%=      5-min Rain = 0
KCL2 140240Z 16007KT 32/13 A2983 RMK A01 T03200133  RH  032%=      5-min Rain = 0
KCL2 140241Z 16007KT 32/13 A2983 RMK A01 T03190133  RH  032%=      5-min Rain = 0
KCL2 140242Z 16007KT 32/13 A2983 RMK A01 T03190133  RH  032%=      5-min Rain = 0
KCL2 140243Z 16007KT 32/13 A2983 RMK A01 T03190133  RH  032%=      5-min Rain = 0
KCL2 140244Z 16006KT 32/13 A2983 RMK A01 T03190133  RH  032%=      5-min Rain = 0
KCL2 140245Z 16007KT 32/13 A2983 RMK A01 T03190133  RH  032%=      5-min Rain = 0
KCL2 140246Z 16007KT 32/13 A2983 RMK A01 T03180132  RH  032%=      5-min Rain = 0
KCL2 140247Z 16006KT 32/13 A2983 RMK A01 T03180132  RH  032%=      5-min Rain = 0
KCL2 140248Z 16006KT 32/13 A2983 RMK A01 T03180133  RH  033%=      5-min Rain = 0
KCL2 140249Z 17006KT 32/13 A2983 RMK A01 T03160133  RH  033%=      5-min Rain = 0
KCL2 140250Z 17006KT 31/13 A2983 RMK A01 T03140134  RH  033%=      5-min Rain = 0
KCL2 140251Z 17007KT 31/13 A2983 RMK A01 T03130132  RH  033%=      5-min Rain = 0
KCL2 140252Z 17007KT 31/13 A2983 RMK A01 T03130131  RH  033%=      5-min Rain = 0
KCL2 140253Z 17007KT 31/13 A2983 RMK A01 T03120132  RH  033%=      5-min Rain = 0
KCL2 140254Z 17007KT 31/13 A2983 RMK A01 T03120131  RH  033%=      5-min Rain = 0
KCL2 140255Z 17007KT 31/13 A2983 RMK A01 T03120131  RH  033%=      5-min Rain = 0
KCL2 140256Z 17007KT 31/13 A2983 RMK A01 T03110129  RH  033%=      5-min Rain = 0
KCL2 140257Z 17007KT 31/13 A2983 RMK A01 T03110130  RH  033%=      5-min Rain = 0
KCL2 140258Z 17007KT 31/13 A2983 RMK A01 T03120129  RH  033%=      5-min Rain = 0
KCL2 140259Z 17008KT 31/13 A2983 RMK A01 T03120128  RH  033%=      5-min Rain = 0
KCL2 140300Z 17008KT 31/13 A2983 RMK A01 T03130125  RH  032%=      5-min Rain = 0
KCL2 140301Z 16008KT 32/13 A2983 RMK A01 T03150125  RH  031%=      5-min Rain = 0
KCL2 140302Z 17008KT 32/12 A2983 RMK A01 T03160124  RH  031%=      5-min Rain = 0
KCL2 140303Z 16008KT 32/12 A2983 RMK A01 T03170124  RH  031%=      5-min Rain = 0
KCL2 140304Z 17008KT 32/12 A2984 RMK A01 T03170124  RH  031%=      5-min Rain = 0
KCL2 140305Z 17009KT 32/12 A2984 RMK A01 T03170122  RH  030%=      5-min Rain = 0
KCL2 140306Z 17009KT 32/12 A2984 RMK A01 T03180119  RH  030%=      5-min Rain = 0
KCL2 140307Z 17008KT 32/12 A2984 RMK A01 T03190118  RH  029%=      5-min Rain = 0
KCL2 140308Z 17008KT 32/12 A2984 RMK A01 T03200119  RH  029%=      5-min Rain = 0
KCL2 140309Z 17008KT 32/12 A2984 RMK A01 T03190116  RH  029%=      5-min Rain = 0
KCL2 140310Z 17007KT 32/12 A2984 RMK A01 T03200116  RH  029%=      5-min Rain = 0
KCL2 140311Z 18008KT 32/12 A2984 RMK A01 T03200116  RH  029%=      5-min Rain = 0
KCL2 140312Z 17007KT 32/12 A2984 RMK A01 T03200116  RH  029%=      5-min Rain = 0
KCL2 140313Z 17007KT 32/12 A2984 RMK A01 T03200115  RH  029%=      5-min Rain = 0
KCL2 140314Z 17007KT 32/12 A2984 RMK A01 T03190117  RH  029%=      5-min Rain = 0
KCL2 140315Z 17007KT 32/12 A2984 RMK A01 T03160116  RH  029%=      5-min Rain = 0
KCL2 140316Z 17007KT 32/12 A2984 RMK A01 T03150116  RH  029%=      5-min Rain = 0
KCL2 140317Z 18007KT 31/11 A2984 RMK A01 T03140114  RH  029%=      5-min Rain = 0
KCL2 140318Z 17008KT 32/11 A2984 RMK A01 T03150113  RH  029%=      5-min Rain = 0
KCL2 140319Z 17008KT 32/11 A2984 RMK A01 T03150113  RH  029%=      5-min Rain = 0
KCL2 140320Z 17008KT 32/11 A2984 RMK A01 T03150113  RH  029%=      5-min Rain = 0
KCL2 140321Z 17008KT 32/11 A2984 RMK A01 T03150113  RH  029%=      5-min Rain = 0
KCL2 140322Z 17007KT 32/11 A2984 RMK A01 T03150113  RH  029%=      5-min Rain = 0
KCL2 140323Z 18008KT 31/11 A2984 RMK A01 T03140113  RH  029%=      5-min Rain = 0
KCL2 140324Z 17008KT 31/11 A2984 RMK A01 T03130112  RH  029%=      5-min Rain = 0
KCL2 140325Z 17008KT 31/11 A2985 RMK A01 T03130111  RH  029%=      5-min Rain = 0
KCL2 140326Z 17008KT 31/11 A2985 RMK A01 T03130111  RH  029%=      5-min Rain = 0
KCL2 140327Z 17009KT 31/11 A2985 RMK A01 T03130111  RH  029%=      5-min Rain = 0
KCL2 140328Z 17008KT 31/11 A2985 RMK A01 T03140111  RH  029%=      5-min Rain = 0
KCL2 140329Z 17008KT 31/11 A2985 RMK A01 T03140111  RH  029%=      5-min Rain = 0
KCL2 140330Z 17009KT 31/11 A2985 RMK A01 T03140110  RH  029%=      5-min Rain = 0
KCL2 140331Z 17009KT 31/11 A2985 RMK A01 T03140110  RH  028%=      5-min Rain = 0
KCL2 140332Z 17009KT 31/11 A2985 RMK A01 T03140110  RH  028%=      5-min Rain = 0
KCL2 140333Z 17008KT 32/11 A2985 RMK A01 T03150110  RH  028%=      5-min Rain = 0
KCL2 140334Z 17009KT 32/11 A2985 RMK A01 T03150110  RH  028%=      5-min Rain = 0
KCL2 140335Z 17009KT 32/11 A2985 RMK A01 T03150110  RH  028%=      5-min Rain = 0
KCL2 140336Z 17010KT 32/11 A2985 RMK A01 T03150110  RH  028%=      5-min Rain = 0
KCL2 140337Z 16009KT 32/11 A2985 RMK A01 T03150110  RH  028%=      5-min Rain = 0
KCL2 140338Z 17010KT 32/11 A2985 RMK A01 T03150110  RH  028%=      5-min Rain = 0
KCL2 140339Z 17008KT 32/11 A2985 RMK A01 T03150110  RH  028%=      5-min Rain = 0
KCL2 140340Z 17009KT 32/11 A2985 RMK A01 T03150110  RH  028%=      5-min Rain = 0
KCL2 140341Z 17010KT 32/11 A2985 RMK A01 T03150109  RH  028%=      5-min Rain = 0
KCL2 140342Z 17011KT 32/11 A2985 RMK A01 T03150109  RH  028%=      5-min Rain = 0
KCL2 140343Z 17011KT 32/11 A2985 RMK A01 T03150109  RH  028%=      5-min Rain = 0
KCL2 140344Z 17010KT 32/11 A2986 RMK A01 T03150109  RH  028%=      5-min Rain = 0
KCL2 140345Z 17009KT 32/11 A2986 RMK A01 T03150109  RH  028%=      5-min Rain = 0
KCL2 140346Z 17010KT 32/11 A2986 RMK A01 T03150109  RH  028%=      5-min Rain = 0
KCL2 140347Z 17010KT 31/11 A2986 RMK A01 T03140109  RH  028%=      5-min Rain = 0
KCL2 140348Z 17009KT 31/11 A2986 RMK A01 T03140108  RH  028%=      5-min Rain = 0
KCL2 140349Z 17009KT 31/11 A2986 RMK A01 T03140109  RH  028%=      5-min Rain = 0
KCL2 140350Z 17009KT 31/11 A2986 RMK A01 T03140109  RH  028%=      5-min Rain = 0
KCL2 140351Z 17008KT 31/11 A2986 RMK A01 T03140108  RH  028%=      5-min Rain = 0
KCL2 140352Z 17008KT 31/11 A2986 RMK A01 T03140108  RH  028%=      5-min Rain = 0
KCL2 140353Z 17009KT 31/11 A2986 RMK A01 T03130108  RH  028%=      5-min Rain = 0
KCL2 140354Z 17009KT 31/11 A2986 RMK A01 T03130108  RH  028%=      5-min Rain = 0
KCL2 140355Z 17009KT 31/11 A2986 RMK A01 T03130108  RH  028%=      5-min Rain = 0
KCL2 140356Z 17009KT 31/11 A2986 RMK A01 T03130108  RH  028%=      5-min Rain = 0
KCL2 140357Z 17008KT 31/11 A2986 RMK A01 T03120107  RH  028%=      5-min Rain = 0
KCL2 140358Z 17010KT 31/11 A2986 RMK A01 T03130107  RH  028%=      5-min Rain = 0
KCL2 140359Z 17008KT 31/11 A2986 RMK A01 T03140106  RH  028%=      5-min Rain = 0
KCL2 140400Z 17009KT 32/11 A2986 RMK A01 T03150107  RH  028%=      5-min Rain = 0
KCL2 140401Z 17009KT 31/11 A2986 RMK A01 T03140107  RH  028%=      5-min Rain = 0
KCL2 140402Z 17010KT 31/11 A2986 RMK A01 T03140107  RH  028%=      5-min Rain = 0
KCL2 140403Z 17010KT 31/11 A2986 RMK A01 T03140107  RH  028%=      5-min Rain = 0
KCL2 140404Z 17011KT 31/11 A2986 RMK A01 T03130106  RH  028%=      5-min Rain = 0
KCL2 140405Z 17011KT 31/11 A2986 RMK A01 T03140106  RH  028%=      5-min Rain = 0
KCL2 140406Z 17010KT 32/11 A2986 RMK A01 T03150105  RH  028%=      5-min Rain = 0
KCL2 140407Z 17010KT 32/11 A2986 RMK A01 T03150106  RH  028%=      5-min Rain = 0
KCL2 140408Z 17009KT 31/11 A2986 RMK A01 T03140106  RH  028%=      5-min Rain = 0
KCL2 140409Z 17009KT 31/11 A2986 RMK A01 T03140107  RH  028%=      5-min Rain = 0
KCL2 140410Z 17009KT 31/11 A2986 RMK A01 T03130106  RH  028%=      5-min Rain = 0
KCL2 140411Z 17010KT 31/11 A2986 RMK A01 T03120106  RH  028%=      5-min Rain = 0
KCL2 140412Z 17010KT 31/11 A2986 RMK A01 T03120106  RH  028%=      5-min Rain = 0
KCL2 140413Z 17009KT 31/11 A2986 RMK A01 T03120106  RH  028%=      5-min Rain = 0
KCL2 140414Z 17011KT 31/11 A2986 RMK A01 T03120106  RH  028%=      5-min Rain = 0
KCL2 140415Z 17010KT 31/11 A2986 RMK A01 T03110106  RH  028%=      5-min Rain = 0
KCL2 140416Z 17010KT 31/11 A2986 RMK A01 T03110106  RH  028%=      5-min Rain = 0
KCL2 140417Z 17011KT 31/11 A2986 RMK A01 T03110107  RH  028%=      5-min Rain = 0
KCL2 140418Z 17008KT 31/11 A2986 RMK A01 T03110106  RH  028%=      5-min Rain = 0
KCL2 140419Z 17009KT 31/11 A2986 RMK A01 T03100107  RH  028%=      5-min Rain = 0
KCL2 140420Z 17009KT 31/11 A2986 RMK A01 T03100106  RH  029%=      5-min Rain = 0
KCL2 140421Z 17008KT 31/11 A2986 RMK A01 T03090107  RH  029%=      5-min Rain = 0
KCL2 140422Z 17009KT 31/11 A2986 RMK A01 T03080107  RH  029%=      5-min Rain = 0
KCL2 140423Z 17009KT 31/11 A2986 RMK A01 T03070106  RH  029%=      5-min Rain = 0
KCL2 140424Z 16010KT 31/11 A2986 RMK A01 T03070106  RH  029%=      5-min Rain = 0
KCL2 140425Z 17010KT 31/11 A2986 RMK A01 T03070106  RH  029%=      5-min Rain = 0
KCL2 140426Z 16010KT 31/11 A2986 RMK A01 T03070106  RH  029%=      5-min Rain = 0
KCL2 140427Z 17010KT 31/11 A2986 RMK A01 T03070107  RH  029%=      5-min Rain = 0
KCL2 140428Z 16009KT 31/11 A2986 RMK A01 T03070106  RH  029%=      5-min Rain = 0
KCL2 140429Z 17009KT 31/11 A2986 RMK A01 T03070107  RH  029%=      5-min Rain = 0
KCL2 140430Z 17010KT 31/11 A2986 RMK A01 T03070107  RH  029%=      5-min Rain = 0
KCL2 140431Z 17010KT 31/11 A2986 RMK A01 T03070107  RH  029%=      5-min Rain = 0
KCL2 140432Z 17011KT 31/11 A2986 RMK A01 T03070107  RH  029%=      5-min Rain = 0
KCL2 140433Z 17011KT 31/11 A2986 RMK A01 T03070108  RH  029%=      5-min Rain = 0
KCL2 140434Z 17009KT 31/11 A2986 RMK A01 T03070108  RH  029%=      5-min Rain = 0
KCL2 140435Z 17009KT 31/11 A2986 RMK A01 T03070109  RH  030%=      5-min Rain = 0
KCL2 140436Z 17009KT 31/11 A2987 RMK A01 T03060108  RH  030%=      5-min Rain = 0
KCL2 140437Z 16010KT 31/11 A2986 RMK A01 T03050109  RH  030%=      5-min Rain = 0
KCL2 140438Z 17011G16KT 30/11 A2986 RMK A01 T03040109  RH  030%=      5-min Rain = 0
KCL2 140439Z 17011KT 30/11 A2986 RMK A01 T03040108  RH  030%=      5-min Rain = 0
KCL2 140440Z 17010KT 30/11 A2986 RMK A01 T03040108  RH  030%=      5-min Rain = 0
KCL2 140441Z 17010KT 30/11 A2986 RMK A01 T03040108  RH  030%=      5-min Rain = 0
KCL2 140442Z 17011KT 30/11 A2986 RMK A01 T03040109  RH  030%=      5-min Rain = 0
KCL2 140443Z 17011KT 30/11 A2986 RMK A01 T03040108  RH  030%=      5-min Rain = 0
KCL2 140444Z 17010KT 30/11 A2986 RMK A01 T03040108  RH  030%=      5-min Rain = 0
KCL2 140445Z 16011KT 30/11 A2986 RMK A01 T03040108  RH  030%=      5-min Rain = 0
KCL2 140446Z 17010KT 30/11 A2986 RMK A01 T03040109  RH  030%=      5-min Rain = 0
KCL2 140447Z 17010KT 30/11 A2986 RMK A01 T03040109  RH  030%=      5-min Rain = 0
KCL2 140448Z 17009KT 30/11 A2986 RMK A01 T03030109  RH  030%=      5-min Rain = 0
KCL2 140449Z 17011KT 30/11 A2986 RMK A01 T03030109  RH  030%=      5-min Rain = 0
KCL2 140450Z 17010KT 30/11 A2986 RMK A01 T03030109  RH  030%=      5-min Rain = 0
KCL2 140451Z 17010KT 30/11 A2986 RMK A01 T03020109  RH  030%=      5-min Rain = 0
KCL2 140452Z 17008KT 30/11 A2986 RMK A01 T03020109  RH  030%=      5-min Rain = 0
KCL2 140453Z 17010KT 30/11 A2986 RMK A01 T03010109  RH  030%=      5-min Rain = 0
KCL2 140454Z 17010KT 30/11 A2986 RMK A01 T03010109  RH  030%=      5-min Rain = 0
KCL2 140455Z 17011KT 30/11 A2986 RMK A01 T03010109  RH  031%=      5-min Rain = 0
KCL2 140456Z 17010KT 30/11 A2987 RMK A01 T03010109  RH  030%=      5-min Rain = 0
KCL2 140457Z 17009KT 30/11 A2987 RMK A01 T03010109  RH  030%=      5-min Rain = 0
KCL2 140458Z 17010G15KT 30/11 A2987 RMK A01 T03010110  RH  031%=      5-min Rain = 0
KCL2 140459Z 17012KT 30/11 A2987 RMK A01 T03010109  RH  031%=      5-min Rain = 0

Page generated in 0.1285 seconds.